W2GRK-15 Weather Reports


Display with metric or nautical units.
time (UTC)temp
F
wind
direction
speed
MPH
gust
MPH
rain 1hr
in
rain 24hr
in
rain mn
in
humidity
%
barometer
mb
20260906091221 64 342 1.0 1.0 0.00 0.00 0.00 82 1014.6
20260906091116 64 343 1.0 2.0 0.00 0.00 0.00 81 1014.5
20260906091028 64 343 1.0 2.0 0.00 0.00 0.00 82 1014.5
20260906090923 64 342 0.0 1.0 0.00 0.00 0.00 82 1014.5
20260906090819 64 343 0.0 1.0 0.00 0.00 0.00 81 1014.4
20260906090731 64 343 0.0 1.0 0.00 0.00 0.00 82 1014.4
20260906090626 64 353 0.0 1.0 0.00 0.00 0.00 81 1014.6
20260906090522 64 353 0.0 1.0 0.00 0.00 0.00 81 1014.3
20260906090417 64 0.0 0.0 0.00 0.00 0.00 81 1014.3
20260906090349 64 353 0.0 1.0 0.00 0.00 0.00 81 1014.5
20260906090224 64 344 1.0 2.0 0.00 0.00 0.00 81 1014.5
20260906090140 64 300 0.0 1.0 0.00 0.00 0.00 82 1014.5
20260906090035 64 300 1.0 1.0 0.00 0.00 0.00 82 1014.5
20260906085927 64 300 0.0 1.0 0.00 0.00 0.00 81 1014.5
20260906085823 64 300 1.0 2.0 0.00 0.00 0.00 80 1014.5
20260906085718 64 0.0 0.0 0.00 0.00 0.00 80 1014.5
20260906085630 64 0.0 0.0 0.00 0.00 0.00 80 1014.5
20260906085525 64 0.0 0.0 0.00 0.00 0.00 81 1014.4
20260906085420 64 0.0 0.0 0.00 0.00 0.00 81 1014.4
20260906085337 64 0.0 0.0 0.00 0.00 0.00 82 1014.4
20260906085228 64 300 0.0 1.0 0.00 0.00 0.00 81 1014.6
20260906085123 64 300 1.0 2.0 0.00 0.00 0.00 81 1014.5
20260906085019 64 298 1.0 2.0 0.00 0.00 0.00 81 1014.2
20260906084931 64 298 0.0 1.0 0.00 0.00 0.00 81 1014.4
20260906084826 64 0.0 0.0 0.00 0.00 0.00 82 1014.4
20260906084722 64 297 1.0 2.0 0.00 0.00 0.00 80 1014.4
20260906084640 64 322 1.0 2.0 0.00 0.00 0.00 81 1014.4
20260906084529 64 322 0.0 1.0 0.00 0.00 0.00 81 1014.5
20260906084424 64 0.0 0.0 0.00 0.00 0.00 81 1014.4
20260906084320 64 322 1.0 1.0 0.00 0.00 0.00 80 1014.3
20260906084215 64 322 0.0 1.0 0.00 0.00 0.00 80 1014.3
20260906084127 64 0.0 0.0 0.00 0.00 0.00 80 1014.3
20260906084043 64 0.0 0.0 0.00 0.00 0.00 80 1014.4
20260906083918 64 0.0 0.0 0.00 0.00 0.00 79 1014.4
20260906083830 64 0.0 0.0 0.00 0.00 0.00 79 1014.4
20260906083726 64 322 0.0 1.0 0.00 0.00 0.00 79 1014.4
20260906083621 64 322 0.0 1.0 0.00 0.00 0.00 80 1014.4
20260906083517 64 0.0 0.0 0.00 0.00 0.00 81 1014.1
20260906083428 64 322 0.0 1.0 0.00 0.00 0.00 79 1014.2
20260906083324 64 0.0 0.0 0.00 0.00 0.00 79 1014.3
20260906083239 64 0.0 0.0 0.00 0.00 0.00 79 1014.3
20260906083131 64 322 0.0 1.0 0.00 0.00 0.00 81 1014.2
20260906083026 64 322 0.0 1.0 0.00 0.00 0.00 81 1014.1
20260906082922 64 322 1.0 2.0 0.00 0.00 0.00 81 1014.2
20260906082817 64 322 0.0 1.0 0.00 0.00 0.00 81 1014.1
20260906082729 64 323 1.0 2.0 0.00 0.00 0.00 81 1014.2
20260906082624 64 323 1.0 2.0 0.00 0.00 0.00 80 1014.3
20260906082519 64 0.0 0.0 0.00 0.00 0.00 80 1014.0
20260906082415 65 0.0 0.0 0.00 0.00 0.00 80 1014.2
20260906082347 65 324 1.0 1.0 0.00 0.00 0.00 79 1014.1
20260906082222 65 323 0.0 1.0 0.00 0.00 0.00 80 1014.1
20260906082138 65 0.0 0.0 0.00 0.00 0.00 80 1014.2
20260906082029 65 0.0 0.0 0.00 0.00 0.00 80 1014.3
20260906081925 65 0.0 0.0 0.00 0.00 0.00 81 1014.2
20260906081820 65 323 1.0 1.0 0.00 0.00 0.00 81 1014.1
20260906081716 65 323 1.0 1.0 0.00 0.00 0.00 80 1014.0
20260906081627 65 319 2.0 3.0 0.00 0.00 0.00 81 1014.2
20260906081543 65 314 0.0 2.0 0.00 0.00 0.00 80 1014.3
20260906081419 65 0.0 0.0 0.00 0.00 0.00 81 1014.2
20260906081330 65 0.0 0.0 0.00 0.00 0.00 81 1014.1
20260906081225 65 0.0 0.0 0.00 0.00 0.00 80 1014.1
20260906081121 65 0.0 0.0 0.00 0.00 0.00 80 1013.8
20260906081017 65 310 0.0 1.0 0.00 0.00 0.00 80 1013.8
20260906080928 65 310 1.0 1.0 0.00 0.00 0.00 80 1013.9
20260906080824 65 309 2.0 3.0 0.00 0.00 0.00 81 1014.1
20260906080719 65 307 2.0 2.0 0.00 0.00 0.00 81 1014.4
20260906080615 65 304 2.0 4.0 0.00 0.00 0.00 81 1014.1
20260906080527 65 296 3.0 6.0 0.00 0.00 0.00 81 1014.0
20260906080422 65 299 3.0 6.0 0.00 0.00 0.00 80 1014.0
20260906080318 65 329 1.0 1.0 0.00 0.00 0.00 79 1013.9
20260906080250 65 330 1.0 2.0 0.00 0.00 0.00 78 1014.0
20260906080125 65 0.0 0.0 0.00 0.00 0.00 79 1013.8
20260906080021 65 0.0 0.0 0.00 0.00 0.00 80 1013.9
20260906075936 65 330 0.0 1.0 0.00 0.00 0.00 80 1013.9
20260906075828 65 348 2.0 3.0 0.00 0.00 0.00 79 1013.9
20260906075723 65 333 0.0 3.0 0.00 0.00 0.00 79 1013.9
20260906075619 65 311 1.0 1.0 0.00 0.00 0.00 79 1013.9
20260906075531 65 311 1.0 1.0 0.00 0.00 0.00 79 1014.0
20260906075426 65 310 1.0 2.0 0.00 0.00 0.00 80 1014.0
20260906075321 65 305 1.0 2.0 0.00 0.00 0.00 80 1014.0
20260906075217 65 313 1.0 2.0 0.00 0.00 0.00 80 1014.0
20260906075128 65 315 1.0 3.0 0.00 0.00 0.00 78 1013.9
20260906075024 65 0.0 0.0 0.00 0.00 0.00 79 1014.0
20260906074919 65 301 0.0 1.0 0.00 0.00 0.00 80 1014.1
20260906074815 65 301 0.0 1.0 0.00 0.00 0.00 79 1013.9
20260906074727 65 302 0.0 2.0 0.00 0.00 0.00 80 1014.0
20260906074622 65 301 0.0 1.0 0.00 0.00 0.00 79 1014.0
20260906074518 65 300 1.0 1.0 0.00 0.00 0.00 80 1014.0
20260906074430 65 300 0.0 1.0 0.00 0.00 0.00 80 1014.0
20260906074325 65 301 1.0 2.0 0.00 0.00 0.00 80 1014.0
20260906074220 65 302 0.0 1.0 0.00 0.00 0.00 80 1014.1
20260906074116 65 302 0.0 1.0 0.00 0.00 0.00 80 1014.0
20260906074028 65 302 1.0 1.0 0.00 0.00 0.00 80 1014.0
20260906073923 65 302 1.0 2.0 0.00 0.00 0.00 80 1014.1
20260906073819 65 303 1.0 2.0 0.00 0.00 0.00 79 1014.0
20260906073731 65 304 1.0 1.0 0.00 0.00 0.00 79 1014.1
20260906073626 65 304 1.0 2.0 0.00 0.00 0.00 80 1014.2
20260906073521 65 305 1.0 2.0 0.00 0.00 0.00 80 1014.1
20260906073417 65 305 1.0 2.0 0.00 0.00 0.00 79 1014.2
20260906073328 65 310 1.0 3.0 0.00 0.00 0.00 78 1014.0
20260906073224 65 326 1.0 1.0 0.00 0.00 0.00 79 1014.2
20260906073120 65 326 1.0 2.0 0.00 0.00 0.00 80 1014.1
20260906073015 65 326 1.0 1.0 0.00 0.00 0.00 79 1014.1
20260906072927 65 325 1.0 2.0 0.00 0.00 0.00 79 1014.1
20260906072822 65 298 0.0 1.0 0.00 0.00 0.00 79 1014.0
20260906072718 65 298 0.0 1.0 0.00 0.00 0.00 79 1014.0
20260906072649 65 298 0.0 1.0 0.00 0.00 0.00 78 1014.0
20260906072525 65 297 1.0 2.0 0.00 0.00 0.00 79 1014.0
20260906072500 65 298 1.0 2.0 0.00 0.00 0.00 79 1013.8
20260906072316 65 299 1.0 2.0 0.00 0.00 0.00 79 1014.0
20260906072228 65 309 2.0 3.0 0.00 0.00 0.00 78 1014.2
20260906072123 65 347 1.0 2.0 0.00 0.00 0.00 77 1014.1
20260906072019 65 328 0.0 1.0 0.00 0.00 0.00 77 1014.2
20260906072011 65 0.0 0.0 0.00 0.00 0.00 77 1014.1
20260906071826 65 0.0 0.0 0.00 0.00 0.00 76 1014.2
20260906071721 65 328 0.0 1.0 0.00 0.00 0.00 77 1014.0
20260906071617 65 328 0.0 1.0 0.00 0.00 0.00 78 1014.1
20260906071529 65 0.0 0.0 0.00 0.00 0.00 78 1014.2
20260906071424 65 327 1.0 2.0 0.00 0.00 0.00 78 1014.1
20260906071320 65 335 1.0 2.0 0.00 0.00 0.00 78 1014.1
20260906071215 65 311 2.0 3.0 0.00 0.00 0.00 77 1014.2
20260906071127 65 0.0 0.0 0.00 0.00 0.00 76 1014.2
20260906071023 65 0.0 0.0 0.00 0.00 0.00 77 1014.2
20260906070938 65 0.0 0.0 0.00 0.00 0.00 78 1014.0
20260906070830 65 329 1.0 3.0 0.00 0.00 0.00 77 1014.1
20260906070725 65 328 1.0 3.0 0.00 0.00 0.00 78 1014.2
20260906070621 65 312 0.0 1.0 0.00 0.00 0.00 78 1014.2
20260906070516 65 314 2.0 2.0 0.00 0.00 0.00 78 1014.2
20260906070428 65 328 1.0 2.0 0.00 0.00 0.00 77 1014.3
20260906070323 65 331 1.0 2.0 0.00 0.00 0.00 78 1014.2
20260906070239 65 345 0.0 2.0 0.00 0.00 0.00 78 1013.9
20260906070131 65 312 1.0 2.0 0.00 0.00 0.00 77 1014.1
20260906070026 66 311 0.0 1.0 0.00 0.00 0.00 77 1014.1
20260906065921 66 0.0 0.0 0.00 0.00 0.00 78 1014.1
20260906065816 66 311 1.0 2.0 0.00 0.00 0.00 78 1014.1
20260906065728 66 311 1.0 2.0 0.00 0.00 0.00 78 1014.1
20260906065644 66 312 1.0 2.0 0.00 0.00 0.00 77 1014.1
20260906065519 66 309 1.0 2.0 0.00 0.00 0.00 78 1014.1
20260906065451 66 0.0 0.0 0.00 0.00 0.00 77 1014.0
20260906065326 66 305 1.0 1.0 0.00 0.00 0.00 77 1014.0
20260906065222 66 303 1.0 3.0 0.00 0.00 0.00 77 1014.1
20260906065118 66 323 0.0 1.0 0.00 0.00 0.00 78 1014.1
20260906065029 66 323 1.0 3.0 0.00 0.00 0.00 78 1014.1
20260906064925 66 322 1.0 2.0 0.00 0.00 0.00 77 1014.1
20260906064841 66 323 1.0 3.0 0.00 0.00 0.00 77 1014.0
20260906064716 66 300 0.0 1.0 0.00 0.00 0.00 77 1014.1
20260906064628 66 300 1.0 1.0 0.00 0.00 0.00 77 1014.1
20260906064523 66 300 1.0 1.0 0.00 0.00 0.00 77 1014.2
20260906064419 66 299 1.0 2.0 0.00 0.00 0.00 77 1014.1
20260906064330 66 300 0.0 1.0 0.00 0.00 0.00 77 1014.0
20260906064245 66 294 0.0 1.0 0.00 0.00 0.00 78 1013.9
20260906064121 66 294 1.0 1.0 0.00 0.00 0.00 78 1013.9
20260906064017 66 294 2.0 2.0 0.00 0.00 0.00 78 1013.9
20260906063928 66 306 1.0 2.0 0.00 0.00 0.00 78 1014.0
20260906063824 66 266 1.0 2.0 0.00 0.00 0.00 78 1014.1
20260906063719 66 300 1.0 1.0 0.00 0.00 0.00 78 1013.9
20260906063631 66 300 1.0 1.0 0.00 0.00 0.00 78 1014.3
20260906063526 66 301 1.0 1.0 0.00 0.00 0.00 78 1014.3
20260906063421 66 302 1.0 1.0 0.00 0.00 0.00 78 1014.1
20260906063317 66 308 1.0 1.0 0.00 0.00 0.00 78 1014.0
20260906063228 66 309 1.0 1.0 0.00 0.00 0.00 78 1014.0
20260906063124 66 312 1.0 2.0 0.00 0.00 0.00 78 1014.0
20260906063020 66 317 1.0 2.0 0.00 0.00 0.00 78 1014.0
20260906062915 66 318 0.0 1.0 0.00 0.00 0.00 78 1013.9
20260906062827 66 318 1.0 1.0 0.00 0.00 0.00 77 1014.1
20260906062722 66 0.0 0.0 0.00 0.00 0.00 77 1014.0
20260906062618 66 318 0.0 1.0 0.00 0.00 0.00 77 1013.8
20260906062530 66 0.0 0.0 0.00 0.00 0.00 76 1014.1
20260906062425 66 0.0 0.0 0.00 0.00 0.00 77 1014.2
20260906062321 66 325 0.0 1.0 0.00 0.00 0.00 77 1014.2
20260906062236 66 0.0 0.0 0.00 0.00 0.00 78 1013.9
20260906062128 66 325 0.0 1.0 0.00 0.00 0.00 78 1014.2
20260906062023 66 324 0.0 1.0 0.00 0.00 0.00 78 1014.1
20260906061939 66 0.0 0.0 0.00 0.00 0.00 78 1014.1
20260906061830 66 324 0.0 1.0 0.00 0.00 0.00 78 1014.0
20260906061726 66 324 1.0 1.0 0.00 0.00 0.00 78 1014.2
20260906061621 66 324 1.0 1.0 0.00 0.00 0.00 78 1014.1
20260906061517 66 324 1.0 1.0 0.00 0.00 0.00 78 1014.3
20260906061428 66 324 0.0 1.0 0.00 0.00 0.00 78 1014.2
20260906061324 66 324 1.0 1.0 0.00 0.00 0.00 79 1014.2
20260906061220 66 324 1.0 1.0 0.00 0.00 0.00 78 1014.1
20260906061115 65 324 0.0 1.0 0.00 0.00 0.00 78 1014.1
20260906061047 66 324 1.0 1.0 0.00 0.00 0.00 78 1014.1
20260906060922 65 324 0.0 1.0 0.00 0.00 0.00 78 1014.3
20260906060818 65 325 0.0 1.0 0.00 0.00 0.00 77 1014.4
20260906060810 65 324 0.0 1.0 0.00 0.00 0.00 77 1014.3
20260906060646 66 325 0.0 1.0 0.00 0.00 0.00 77 1014.3
20260906060521 66 0.0 0.0 0.00 0.00 0.00 76 1014.3
20260906060416 66 0.0 0.0 0.00 0.00 0.00 76 1014.3
20260906060328 66 0.0 0.0 0.00 0.00 0.00 77 1014.2
20260906060244 66 325 0.0 1.0 0.00 0.00 0.00 77 1014.2
20260906060119 66 325 0.0 1.0 0.00 0.00 0.00 77 1014.2
20260906060051 66 324 0.0 1.0 0.00 0.00 0.00 77 1014.4
20260906055926 66 324 0.0 1.0 0.00 0.00 0.00 77 1014.3
20260906055821 66 324 0.0 1.0 0.00 0.00 0.00 77 1014.4
20260906055717 66 324 0.0 1.0 0.00 0.00 0.00 77 1014.5
20260906055629 66 324 0.0 1.0 0.00 0.00 0.00 77 1014.4
20260906055524 66 324 0.0 1.0 0.00 0.00 0.00 77 1014.4
20260906055420 66 0.0 0.0 0.00 0.00 0.00 77 1014.3
20260906055315 66 325 0.0 1.0 0.00 0.00 0.00 78 1014.5
20260906055227 66 324 1.0 1.0 0.00 0.00 0.00 78 1014.4
20260906055123 66 324 1.0 1.0 0.00 0.00 0.00 78 1014.4
20260906055018 66 324 1.0 2.0 0.00 0.00 0.00 78 1014.4
20260906054930 66 324 1.0 1.0 0.00 0.00 0.00 78 1014.6
20260906054826 65 324 1.0 1.0 0.00 0.00 0.00 78 1014.4
20260906054721 65 324 1.0 2.0 0.00 0.00 0.00 77 1014.4
20260906054617 65 324 0.0 1.0 0.00 0.00 0.00 78 1014.3
20260906054528 65 324 1.0 1.0 0.00 0.00 0.00 78 1014.4
20260906054423 65 324 1.0 1.0 0.00 0.00 0.00 78 1014.5
20260906054319 65 324 0.0 1.0 0.00 0.00 0.00 77 1014.5
20260906054231 65 325 0.0 1.0 0.00 0.00 0.00 76 1014.5
20260906054126 65 324 0.0 1.0 0.00 0.00 0.00 77 1014.5
20260906054021 65 325 0.0 1.0 0.00 0.00 0.00 77 1014.4
20260906053917 65 0.0 0.0 0.00 0.00 0.00 76 1014.3
20260906053828 65 325 0.0 1.0 0.00 0.00 0.00 77 1014.4
20260906053744 65 325 0.0 1.0 0.00 0.00 0.00 76 1014.5
20260906053619 65 324 0.0 1.0 0.00 0.00 0.00 77 1014.4
20260906053515 65 0.0 0.0 0.00 0.00 0.00 77 1014.3
20260906053427 65 324 0.0 1.0 0.00 0.00 0.00 77 1014.4
20260906053342 65 324 1.0 1.0 0.00 0.00 0.00 77 1014.4
20260906053218 65 0.0 0.0 0.00 0.00 0.00 77 1014.5
20260906053149 65 324 0.0 1.0 0.00 0.00 0.00 77 1014.5
20260906053025 65 324 0.0 1.0 0.00 0.00 0.00 76 1014.4
20260906052921 65 0.0 0.0 0.00 0.00 0.00 76 1014.4
20260906052816 65 324 0.0 1.0 0.00 0.00 0.00 77 1014.5
20260906052728 65 324 1.0 1.0 0.00 0.00 0.00 76 1014.5
20260906052623 65 324 0.0 1.0 0.00 0.00 0.00 73 1014.5
20260906052519 65 0.0 0.0 0.00 0.00 0.00 73 1014.4
20260906052430 65 0.0 0.0 0.00 0.00 0.00 73 1014.5
20260906052346 65 0.0 0.0 0.00 0.00 0.00 73 1014.5
20260906052221 65 0.0 0.0 0.00 0.00 0.00 73 1014.4
20260906052117 65 0.0 0.0 0.00 0.00 0.00 73 1014.4
20260906052029 66 325 0.0 1.0 0.00 0.00 0.00 73 1014.4
20260906052004 66 325 0.0 2.0 0.00 0.00 0.00 71 1014.4
20260906051839 66 0.0 0.0 0.00 0.00 0.00 73 1014.4
20260906051735 66 0.0 0.0 0.00 0.00 0.00 72 1014.5
20260906051647 66 0.0 0.0 0.00 0.00 0.00 72 1014.4
20260906051542 66 0.0 0.0 0.00 0.00 0.00 72 1014.5
20260906051418 66 0.0 0.0 0.00 0.00 0.00 72 1014.4
20260906051330 66 0.0 0.0 0.00 0.00 0.00 73 1014.4
20260906051225 66 0.0 0.0 0.00 0.00 0.00 73 1014.6
20260906051121 66 0.0 0.0 0.00 0.00 0.00 73 1014.6
20260906051016 66 0.0 0.0 0.00 0.00 0.00 73 1014.6
20260906050928 66 0.0 0.0 0.00 0.00 0.00 73 1014.5
20260906050823 66 0.0 0.0 0.00 0.00 0.00 74 1014.5
20260906050719 66 0.0 0.0 0.00 0.00 0.00 73 1014.5
20260906050631 66 0.0 0.0 0.00 0.00 0.00 73 1014.5
20260906050526 66 0.0 0.0 0.00 0.00 0.00 73 1014.5
20260906050501 66 0.0 0.0 0.00 0.00 0.00 73 1014.4
20260906050337 66 0.0 0.0 0.00 0.00 0.00 74 1014.3
20260906050228 66 0.0 0.0 0.00 0.00 0.00 75 1014.3
20260906050144 66 0.0 0.0 0.00 0.00 0.00 75 1014.3
20260906050019 66 324 1.0 1.0 0.00 0.00 0.00 74 1014.4
20260906045931 66 0.0 0.0 0.00 0.00 0.00 74 1014.3
20260906045846 66 324 0.0 1.0 0.00 0.00 0.00 74 1014.5
20260906045822 66 0.0 0.0 0.00 0.00 0.00 74 1014.6
20260906045617 66 0.0 0.0 0.00 0.00 0.00 74 1014.5
20260906045549 66 0.0 0.0 0.00 0.00 0.00 74 1014.5
20260906045425 66 0.0 0.0 0.00 0.00 0.00 74 1014.5
20260906045320 66 324 0.0 1.0 0.00 0.00 0.00 75 1014.6
20260906045216 66 324 0.0 1.0 0.00 0.00 0.00 75 1014.6
20260906045127 66 0.0 0.0 0.00 0.00 0.00 75 1014.5
20260906045022 66 0.0 0.0 0.00 0.00 0.00 75 1014.5
20260906044919 66 324 0.0 1.0 0.00 0.00 0.00 75 1014.5
20260906044829 66 324 1.0 1.0 0.00 0.00 0.00 75 1014.6
20260906044725 66 324 1.0 1.0 0.00 0.00 0.00 74 1014.5
20260906044621 66 324 0.0 1.0 0.00 0.00 0.00 75 1014.5
20260906044516 66 324 1.0 1.0 0.00 0.00 0.00 75 1014.6
20260906044428 66 324 1.0 1.0 0.00 0.00 0.00 75 1014.6
20260906044323 66 324 1.0 1.0 0.00 0.00 0.00 74 1014.6
20260906044219 66 324 1.0 1.0 0.00 0.00 0.00 75 1014.5
20260906044131 66 324 0.0 1.0 0.00 0.00 0.00 75 1014.6
20260906044025 66 324 1.0 1.0 0.00 0.00 0.00 74 1014.6
20260906043921 66 324 0.0 1.0 0.00 0.00 0.00 73 1014.5
20260906043817 66 324 0.0 1.0 0.00 0.00 0.00 74 1014.4
20260906043729 66 324 1.0 1.0 0.00 0.00 0.00 73 1014.7
20260906043644 66 0.0 0.0 0.00 0.00 0.00 72 1014.7
20260906043519 66 325 0.0 1.0 0.00 0.00 0.00 71 1014.6
20260906043415 66 0.0 0.0 0.00 0.00 0.00 72 1014.7
20260906043327 66 0.0 0.0 0.00 0.00 0.00 71 1014.6
20260906043242 66 0.0 0.0 0.00 0.00 0.00 70 1014.6
20260906043118 66 0.0 0.0 0.00 0.00 0.00 70 1014.4
20260906043029 67 0.0 0.0 0.00 0.00 0.00 70 1014.4
20260906042925 67 0.0 0.0 0.00 0.00 0.00 70 1014.4
20260906042821 67 0.0 0.0 0.00 0.00 0.00 70 1014.2
20260906042756 67 0.0 0.0 0.00 0.00 0.00 70 1014.4
20260906042628 67 0.0 0.0 0.00 0.00 0.00 70 1014.2
20260906042523 67 0.0 0.0 0.00 0.00 0.00 70 1014.5
20260906042419 67 0.0 0.0 0.00 0.00 0.00 70 1014.5
20260906042331 67 0.0 0.0 0.00 0.00 0.00 70 1014.5
20260906042226 67 0.0 0.0 0.00 0.00 0.00 71 1014.4
20260906042121 67 0.0 0.0 0.00 0.00 0.00 71 1014.5
20260906042017 67 0.0 0.0 0.00 0.00 0.00 70 1014.3
20260906041928 67 0.0 0.0 0.00 0.00 0.00 70 1014.4
20260906041824 67 0.0 0.0 0.00 0.00 0.00 70 1014.3
20260906041720 67 0.0 0.0 0.00 0.00 0.00 70 1014.2
20260906041631 67 0.0 0.0 0.00 0.00 0.00 71 1014.4
20260906041526 67 0.0 0.0 0.00 0.00 0.00 71 1014.4
20260906041422 67 0.0 0.0 0.00 0.00 0.00 72 1014.4
20260906041318 67 0.0 0.0 0.00 0.00 0.00 71 1014.1
20260906041249 67 0.0 0.0 0.00 0.00 0.00 72 1014.4
20260906041125 67 0.0 0.0 0.00 0.00 0.00 72 1014.3
20260906041041 67 0.0 0.0 0.00 0.00 0.00 72 1014.3
20260906040916 67 324 0.0 1.0 0.00 0.00 0.00 71 1014.4
20260906040828 67 324 0.0 1.0 0.00 0.00 0.00 70 1014.4
20260906040723 67 324 0.0 1.0 0.00 0.00 0.00 70 1014.4
20260906040619 67 324 0.0 1.0 0.00 0.00 0.00 70 1014.4
20260906040531 67 324 0.0 1.0 0.00 0.00 0.00 69 1014.5
20260906040446 67 0.0 0.0 0.00 0.00 0.00 68 1014.5
20260906040321 67 0.0 0.0 0.00 0.00 0.00 68 1014.4
20260906040217 67 0.0 0.0 0.00 0.00 0.00 68 1014.5
20260906040129 67 0.0 0.0 0.00 0.00 0.00 69 1014.3
20260906040024 67 0.0 0.0 0.00 0.00 0.00 68 1014.3
20260906035940 67 0.0 0.0 0.00 0.00 0.00 68 1014.3
20260906035835 67 0.0 0.0 0.00 0.00 0.00 68 1014.5
20260906035727 67 0.0 0.0 0.00 0.00 0.00 69 1014.4
20260906035642 67 0.0 0.0 0.00 0.00 0.00 69 1014.4
20260906035518 67 0.0 0.0 0.00 0.00 0.00 70 1014.5
20260906035430 67 0.0 0.0 0.00 0.00 0.00 70 1014.5
20260906035325 68 324 0.0 1.0 0.00 0.00 0.00 69 1014.6
20260906035221 68 324 0.0 1.0 0.00 0.00 0.00 69 1014.7
20260906035116 68 324 0.0 1.0 0.00 0.00 0.00 69 1014.4
20260906035028 68 0.0 0.0 0.00 0.00 0.00 69 1014.4
20260906034923 68 0.0 0.0 0.00 0.00 0.00 68 1014.4
20260906034819 68 0.0 0.0 0.00 0.00 0.00 69 1014.4
20260906034731 68 325 1.0 2.0 0.00 0.00 0.00 69 1014.5
20260906034626 68 0.0 0.0 0.00 0.00 0.00 68 1014.5
20260906034521 68 0.0 0.0 0.00 0.00 0.00 68 1014.4
20260906034437 68 0.0 0.0 0.00 0.00 0.00 69 1014.3
20260906034328 68 323 0.0 1.0 0.00 0.00 0.00 69 1014.5
20260906034224 68 323 1.0 2.0 0.00 0.00 0.00 69 1014.5
20260906034119 68 323 0.0 1.0 0.00 0.00 0.00 70 1014.3
20260906034110 68 324 1.0 1.0 0.00 0.00 0.00 70 1014.4
20260906033926 68 322 0.0 1.0 0.00 0.00 0.00 70 1014.4
20260906033821 68 321 1.0 2.0 0.00 0.00 0.00 69 1014.4
20260906033717 68 318 2.0 3.0 0.00 0.00 0.00 70 1014.4
20260906033628 68 327 1.0 1.0 0.00 0.00 0.00 69 1014.3
20260906033524 68 327 0.0 1.0 0.00 0.00 0.00 68 1014.4
20260906033419 68 0.0 0.0 0.00 0.00 0.00 68 1014.4
20260906033315 68 0.0 0.0 0.00 0.00 0.00 68 1014.3
20260906033227 68 0.0 0.0 0.00 0.00 0.00 68 1014.3
20260906033122 68 0.0 0.0 0.00 0.00 0.00 68 1014.3
20260906033018 68 0.0 0.0 0.00 0.00 0.00 68 1014.3
20260906032929 68 0.0 0.0 0.00 0.00 0.00 69 1014.4
20260906032825 68 0.0 0.0 0.00 0.00 0.00 68 1014.3
20260906032740 68 0.0 0.0 0.00 0.00 0.00 69 1014.4
20260906032616 68 327 0.0 1.0 0.00 0.00 0.00 69 1014.4
20260906032527 68 327 0.0 1.0 0.00 0.00 0.00 68 1014.2
20260906032423 68 0.0 0.0 0.00 0.00 0.00 70 1014.1
20260906032319 68 327 1.0 1.0 0.00 0.00 0.00 69 1013.9
20260906032250 68 328 0.0 1.0 0.00 0.00 0.00 69 1014.3
20260906032126 69 328 1.0 1.0 0.00 0.00 0.00 69 1014.3
20260906032041 69 328 1.0 2.0 0.00 0.00 0.00 69 1014.4
20260906031937 69 327 0.0 1.0 0.00 0.00 0.00 68 1014.2
20260906031908 69 327 0.0 1.0 0.00 0.00 0.00 69 1014.2
20260906031744 69 326 1.0 2.0 0.00 0.00 0.00 69 1014.3
20260906031619 69 328 1.0 2.0 0.00 0.00 0.00 68 1014.3
20260906031531 69 325 0.0 1.0 0.00 0.00 0.00 69 1014.2
20260906031427 69 325 1.0 1.0 0.00 0.00 0.00 69 1014.0
20260906031322 69 325 0.0 1.0 0.00 0.00 0.00 68 1014.1
20260906031218 69 324 1.0 2.0 0.00 0.00 0.00 68 1014.2
20260906031129 69 325 0.0 2.0 0.00 0.00 0.00 67 1014.0
20260906031025 69 328 0.0 1.0 0.00 0.00 0.00 67 1014.1
20260906030921 69 327 0.0 1.0 0.00 0.00 0.00 68 1014.1
20260906030816 69 325 0.0 1.0 0.00 0.00 0.00 68 1013.9
20260906030727 69 325 1.0 2.0 0.00 0.00 0.00 68 1014.1
20260906030623 69 324 1.0 2.0 0.00 0.00 0.00 68 1013.9
20260906030519 69 0.0 0.0 0.00 0.00 0.00 67 1013.9
20260906030430 69 325 0.0 1.0 0.00 0.00 0.00 68 1014.0
20260906030326 69 324 1.0 2.0 0.00 0.00 0.00 67 1014.0
20260906030221 69 319 0.0 1.0 0.00 0.00 0.00 67 1014.0
20260906030137 69 319 0.0 1.0 0.00 0.00 0.00 67 1013.9
20260906030028 69 0.0 0.0 0.00 0.00 0.00 68 1014.1
20260906025924 69 314 1.0 1.0 0.00 0.00 0.00 68 1014.2
20260906025819 69 312 1.0 1.0 0.00 0.00 0.00 67 1013.9
20260906025715 69 311 0.0 1.0 0.00 0.00 0.00 67 1014.1
20260906025626 69 310 1.0 1.0 0.00 0.00 0.00 67 1014.1
20260906025522 69 311 1.0 2.0 0.00 0.00 0.00 68 1014.1
20260906025417 69 311 1.0 2.0 0.00 0.00 0.00 68 1013.9
20260906025329 69 311 1.0 2.0 0.00 0.00 0.00 68 1014.0
20260906025225 69 312 1.0 1.0 0.00 0.00 0.00 67 1014.0
20260906025120 69 0.0 0.0 0.00 0.00 0.00 68 1014.0
20260906025016 69 312 0.0 1.0 0.00 0.00 0.00 68 1013.9
20260906024928 69 309 2.0 3.0 0.00 0.00 0.00 67 1014.2
20260906024823 70 311 1.0 2.0 0.00 0.00 0.00 67 1014.2
20260906024719 70 311 1.0 2.0 0.00 0.00 0.00 67 1014.0
20260906024630 70 311 0.0 1.0 0.00 0.00 0.00 68 1014.0
20260906024525 70 311 1.0 1.0 0.00 0.00 0.00 66 1014.2
20260906024421 70 311 0.0 1.0 0.00 0.00 0.00 67 1014.2
20260906024317 70 312 1.0 2.0 0.00 0.00 0.00 68 1013.9
20260906024228 70 308 2.0 3.0 0.00 0.00 0.00 67 1014.1
20260906024124 70 313 1.0 1.0 0.00 0.00 0.00 68 1014.2
20260906024019 70 313 1.0 1.0 0.00 0.00 0.00 68 1014.2
20260906023915 70 313 1.0 1.0 0.00 0.00 0.00 68 1014.1
20260906023827 70 315 1.0 2.0 0.00 0.00 0.00 68 1014.2
20260906023722 70 329 1.0 2.0 0.00 0.00 0.00 67 1014.2
20260906023618 70 329 1.0 2.0 0.00 0.00 0.00 68 1014.2
20260906023529 70 325 1.0 1.0 0.00 0.00 0.00 68 1014.0
20260906023505 70 318 1.0 2.0 0.00 0.00 0.00 68 1014.0
20260906023320 70 311 1.0 1.0 0.00 0.00 0.00 68 1014.0
20260906023308 70 311 0.0 1.0 0.00 0.00 0.00 67 1014.1
20260906023023 70 296 2.0 3.0 0.00 0.00 0.00 68 1014.0
20260906022918 70 310 2.0 3.0 0.00 0.00 0.00 68 1014.0
20260906022909 70 299 1.0 2.0 0.00 0.00 0.00 68 1014.2
20260906022725 70 309 2.0 4.0 0.00 0.00 0.00 68 1014.0
20260906022620 70 313 0.0 1.0 0.00 0.00 0.00 68 1014.0
20260906022516 70 318 1.0 3.0 0.00 0.00 0.00 67 1013.9
20260906022427 70 323 1.0 2.0 0.00 0.00 0.00 67 1013.9
20260906022323 70 322 1.0 3.0 0.00 0.00 0.00 68 1013.9
20260906022219 70 313 2.0 3.0 0.00 0.00 0.00 67 1013.9
20260906022130 70 280 0.0 2.0 0.00 0.00 0.00 68 1014.0
20260906022046 70 280 1.0 2.0 0.00 0.00 0.00 67 1014.0
20260906021921 70 279 1.0 1.0 0.00 0.00 0.00 67 1014.0
20260906021817 70 279 0.0 1.0 0.00 0.00 0.00 68 1014.1
20260906021728 70 279 0.0 1.0 0.00 0.00 0.00 67 1014.0
20260906021624 70 279 1.0 1.0 0.00 0.00 0.00 67 1014.0
20260906021519 70 288 2.0 3.0 0.00 0.00 0.00 67 1014.0
20260906021435 70 324 1.0 1.0 0.00 0.00 0.00 67 1014.1
20260906021326 70 327 0.0 1.0 0.00 0.00 0.00 66 1014.0
20260906021221 70 327 0.0 1.0 0.00 0.00 0.00 67 1014.0
20260906021117 70 327 1.0 2.0 0.00 0.00 0.00 66 1013.9
20260906021028 70 325 1.0 2.0 0.00 0.00 0.00 67 1014.3
20260906020924 70 325 1.0 1.0 0.00 0.00 0.00 66 1014.2
20260906020819 70 325 0.0 2.0 0.00 0.00 0.00 66 1014.1
20260906020751 70 322 1.0 2.0 0.00 0.00 0.00 66 1014.1
20260906020627 70 320 0.0 1.0 0.00 0.00 0.00 67 1014.1
20260906020602 70 320 1.0 2.0 0.00 0.00 0.00 67 1014.1
20260906020418 70 322 1.0 1.0 0.00 0.00 0.00 67 1013.9
20260906020329 70 319 1.0 2.0 0.00 0.00 0.00 67 1014.1
20260906020245 70 316 0.0 1.0 0.00 0.00 0.00 67 1014.1
20260906020121 70 316 1.0 2.0 0.00 0.00 0.00 67 1014.0
20260906020016 70 322 1.0 2.0 0.00 0.00 0.00 67 1014.1
20260906015928 70 324 2.0 3.0 0.00 0.00 0.00 67 1014.0
20260906015823 70 318 1.0 1.0 0.00 0.00 0.00 67 1014.0
20260906015719 70 346 1.0 1.0 0.00 0.00 0.00 67 1013.9
20260906015630 70 310 1.0 2.0 0.00 0.00 0.00 67 1013.9
20260906015625 70 314 1.0 2.0 0.00 0.00 0.00 67 1013.9
20260906015421 70 314 1.0 2.0 0.00 0.00 0.00 68 1013.9
20260906015337 70 315 1.0 2.0 0.00 0.00 0.00 66 1013.9
20260906015228 70 316 1.0 2.0 0.00 0.00 0.00 66 1014.0
20260906015124 70 315 1.0 2.0 0.00 0.00 0.00 66 1014.0
20260906015020 70 315 1.0 2.0 0.00 0.00 0.00 66 1013.8
20260906014915 70 318 0.0 1.0 0.00 0.00 0.00 66 1013.9
20260906014827 70 317 1.0 2.0 0.00 0.00 0.00 67 1013.9
20260906014722 70 318 1.0 3.0 0.00 0.00 0.00 66 1014.0
20260906014618 70 0.0 0.0 0.00 0.00 0.00 67 1013.7
20260906014529 70 0.0 0.0 0.00 0.00 0.00 68 1013.9
20260906014425 70 323 0.0 1.0 0.00 0.00 0.00 67 1014.0
20260906014320 70 323 0.0 1.0 0.00 0.00 0.00 66 1014.0
20260906014216 70 323 1.0 1.0 0.00 0.00 0.00 67 1014.0
20260906014144 70 323 1.0 2.0 0.00 0.00 0.00 67 1013.9
20260906013919 70 321 1.0 2.0 0.00 0.00 0.00 66 1013.8
20260906013911 70 320 1.0 2.0 0.00 0.00 0.00 68 1013.8
20260906013726 70 319 1.0 2.0 0.00 0.00 0.00 67 1013.7
20260906013621 70 319 0.0 2.0 0.00 0.00 0.00 67 1013.7
20260906013517 70 319 0.0 1.0 0.00 0.00 0.00 66 1013.8
20260906013429 70 319 0.0 1.0 0.00 0.00 0.00 65 1013.8
20260906013404 70 0.0 0.0 0.00 0.00 0.00 65 1013.7
20260906013220 70 0.0 0.0 0.00 0.00 0.00 65 1013.8
20260906013155 70 0.0 0.0 0.00 0.00 0.00 65 1013.7
20260906013027 70 0.0 0.0 0.00 0.00 0.00 65 1013.7
20260906012922 71 319 1.0 2.0 0.00 0.00 0.00 64 1013.8
20260906012818 71 320 0.0 1.0 0.00 0.00 0.00 64 1013.8
20260906012810 71 0.0 0.0 0.00 0.00 0.00 65 1013.7
20260906012625 71 0.0 0.0 0.00 0.00 0.00 65 1013.7
20260906012541 71 0.0 0.0 0.00 0.00 0.00 66 1013.7
20260906012416 71 0.0 0.0 0.00 0.00 0.00 66 1013.7
20260906012328 71 0.0 0.0 0.00 0.00 0.00 67 1013.7
20260906012223 71 319 0.0 1.0 0.00 0.00 0.00 67 1013.5
20260906012119 71 319 0.0 1.0 0.00 0.00 0.00 66 1013.5
20260906012030 71 319 0.0 1.0 0.00 0.00 0.00 65 1013.6
20260906011946 71 0.0 0.0 0.00 0.00 0.00 63 1013.7
20260906011841 71 0.0 0.0 0.00 0.00 0.00 63 1013.6
20260906011717 71 0.0 0.0 0.00 0.00 0.00 63 1013.4
20260906011628 71 0.0 0.0 0.00 0.00 0.00 63 1013.7
20260906011524 71 0.0 0.0 0.00 0.00 0.00 63 1013.5
20260906011420 71 0.0 0.0 0.00 0.00 0.00 63 1013.7
20260906011331 71 0.0 0.0 0.00 0.00 0.00 64 1013.4
20260906011226 71 0.0 0.0 0.00 0.00 0.00 65 1013.7
20260906011202 71 0.0 0.0 0.00 0.00 0.00 65 1013.7
20260906011017 71 0.0 0.0 0.00 0.00 0.00 64 1013.6
20260906010928 71 0.0 0.0 0.00 0.00 0.00 64 1013.6
20260906010824 71 0.0 0.0 0.00 0.00 0.00 63 1013.6
20260906010720 71 0.0 0.0 0.00 0.00 0.00 63 1013.6
20260906010631 71 320 0.0 1.0 0.00 0.00 0.00 62 1013.5
20260906010526 71 0.0 0.0 0.00 0.00 0.00 63 1013.6
20260906010422 71 319 0.0 1.0 0.00 0.00 0.00 64 1013.6
20260906010317 71 319 1.0 2.0 0.00 0.00 0.00 65 1013.5
20260906010229 71 320 0.0 1.0 0.00 0.00 0.00 64 1013.6
20260906010124 71 320 0.0 1.0 0.00 0.00 0.00 64 1013.5
20260906010019 71 320 1.0 1.0 0.00 0.00 0.00 62 1013.5
20260906005915 71 320 0.0 2.0 0.00 0.00 0.00 61 1013.4
20260906005826 71 0.0 0.0 0.00 0.00 0.00 61 1013.5
20260906005722 71 0.0 0.0 0.00 0.00 0.00 60 1013.5
20260906005617 71 0.0 0.0 0.00 0.00 0.00 60 1013.4
20260906005528 71 0.0 0.0 0.00 0.00 0.00 61 1013.3
20260906005443 71 0.0 0.0 0.00 0.00 0.00 61 1013.5
20260906005319 72 0.0 0.0 0.00 0.00 0.00 61 1013.4
20260906005231 72 0.0 0.0 0.00 0.00 0.00 62 1013.3
20260906005125 72 331 0.0 1.0 0.00 0.00 0.00 60 1013.4
20260906005021 72 0.0 0.0 0.00 0.00 0.00 60 1013.4
20260906004917 72 0.0 0.0 0.00 0.00 0.00 60 1013.4
20260906004828 72 331 0.0 1.0 0.00 0.00 0.00 61 1013.3
20260906004723 72 331 0.0 1.0 0.00 0.00 0.00 61 1013.2
20260906004639 72 331 0.0 1.0 0.00 0.00 0.00 61 1013.2
20260906004550 72 0.0 0.0 0.00 0.00 0.00 60 1013.4
20260906004426 72 0.0 0.0 0.00 0.00 0.00 61 1013.3
20260906004342 72 0.0 0.0 0.00 0.00 0.00 60 1013.3
20260906004217 72 332 0.0 1.0 0.00 0.00 0.00 60 1013.3
20260906004128 72 0.0 0.0 0.00 0.00 0.00 59 1013.2
20260906004024 72 0.0 0.0 0.00 0.00 0.00 60 1013.3
20260906003920 72 0.0 0.0 0.00 0.00 0.00 60 1013.3
20260906003851 72 331 0.0 1.0 0.00 0.00 0.00 60 1013.2
20260906003726 73 331 0.0 1.0 0.00 0.00 0.00 60 1013.2
20260906003622 73 0.0 0.0 0.00 0.00 0.00 58 1013.2
20260906003517 73 0.0 0.0 0.00 0.00 0.00 58 1013.2
20260906003429 73 0.0 0.0 0.00 0.00 0.00 58 1013.2
20260906003324 73 0.0 0.0 0.00 0.00 0.00 58 1013.3
20260906003219 73 0.0 0.0 0.00 0.00 0.00 58 1013.3
20260906003135 73 0.0 0.0 0.00 0.00 0.00 59 1013.0
20260906003027 73 0.0 0.0 0.00 0.00 0.00 59 1013.0
20260906002922 73 0.0 0.0 0.00 0.00 0.00 59 1013.0
20260906002818 73 0.0 0.0 0.00 0.00 0.00 59 1012.9
20260906002730 73 332 0.0 1.0 0.00 0.00 0.00 60 1012.9
20260906002625 73 332 1.0 1.0 0.00 0.00 0.00 61 1013.0
20260906002520 73 331 1.0 1.0 0.00 0.00 0.00 60 1013.0
20260906002416 73 331 1.0 1.0 0.00 0.00 0.00 59 1012.9
20260906002328 73 336 1.0 2.0 0.00 0.00 0.00 58 1013.1
20260906002223 73 350 0.0 1.0 0.00 0.00 0.00 58 1013.0
20260906002119 73 351 0.0 1.0 0.00 0.00 0.00 58 1012.9
20260906002051 74 0.0 0.0 0.00 0.00 0.00 58 1012.9
20260906001926 74 0.0 0.0 0.00 0.00 0.00 58 1013.0
20260906001837 74 351 0.0 1.0 0.00 0.00 0.00 59 1013.1
20260906001629 74 351 0.0 1.0 0.00 0.00 0.00 58 1013.0
20260906001524 74 351 0.0 1.0 0.00 0.00 0.00 59 1012.9
20260906001420 74 342 1.0 2.0 0.00 0.00 0.00 59 1012.8
20260906001315 74 312 0.0 1.0 0.00 0.00 0.00 59 1012.8
20260906001307 74 312 0.0 1.0 0.00 0.00 0.00 58 1012.9
20260906001122 74 0.0 0.0 0.00 0.00 0.00 58 1012.8
20260906001018 74 312 1.0 2.0 0.00 0.00 0.00 58 1012.6
20260906000930 74 312 1.0 2.0 0.00 0.00 0.00 58 1012.7
20260906000825 74 312 1.0 1.0 0.00 0.00 0.00 57 1012.8
20260906000721 74 312 1.0 1.0 0.00 0.00 0.00 57 1012.7
20260906000616 74 312 1.0 1.0 0.00 0.00 0.00 58 1012.8
20260906000528 75 311 1.0 2.0 0.00 0.00 0.00 58 1012.7
20260906000425 75 312 0.0 1.0 0.00 0.00 0.00 57 1012.7
20260906000340 75 312 1.0 1.0 0.00 0.00 0.00 58 1012.7
20260906000231 75 310 1.0 2.0 0.00 0.00 0.00 58 1012.6
20260906000126 75 0.0 0.0 0.00 0.00 0.00 57 1012.5
20260906000022 75 0.0 0.0 0.00 0.00 0.00 57 1012.8
20260905235917 75 0.0 0.0 0.00 0.00 0.00 57 1012.6
20260905235829 75 308 0.0 1.0 0.00 0.00 0.00 56 1012.6
20260905235744 75 0.0 0.0 0.00 0.00 0.00 56 1012.7
20260905235620 75 0.0 0.0 0.00 0.00 0.00 57 1012.8
20260905235515 75 308 1.0 2.0 0.00 0.00 0.00 57 1012.6
20260905235427 75 307 0.0 1.0 0.00 0.00 0.00 56 1012.8
20260905235323 75 307 0.0 1.0 0.00 0.00 0.00 56 1012.7
20260905235218 76 0.0 0.0 0.00 0.00 0.00 56 1012.7
20260905235130 76 304 1.0 2.0 0.00 0.00 0.00 57 1012.6
20260905235025 76 301 1.0 2.0 0.00 0.00 0.00 56 1012.6
20260905234921 76 301 1.0 2.0 0.00 0.00 0.00 56 1012.6
20260905234817 76 301 1.0 1.0 0.00 0.00 0.00 56 1012.7
20260905234728 76 295 2.0 4.0 0.00 0.00 0.00 57 1012.6
20260905234624 76 291 2.0 2.0 0.00 0.00 0.00 55 1012.7
20260905234519 76 288 1.0 1.0 0.00 0.00 0.00 55 1012.6
20260905234431 76 288 0.0 1.0 0.00 0.00 0.00 56 1012.6
20260905234326 76 288 0.0 1.0 0.00 0.00 0.00 56 1012.5
20260905234222 76 278 1.0 2.0 0.00 0.00 0.00 56 1012.7
20260905234138 76 266 1.0 1.0 0.00 0.00 0.00 55 1012.6
20260905234029 76 258 1.0 1.0 0.00 0.00 0.00 56 1012.4
20260905233925 76 294 3.0 4.0 0.00 0.00 0.00 55 1012.5
20260905233821 76 322 2.0 4.0 0.00 0.00 0.00 55 1012.6
20260905233716 77 316 2.0 3.0 0.00 0.00 0.00 55 1012.4
20260905233628 77 337 1.0 2.0 0.00 0.00 0.00 55 1012.6
20260905233523 77 337 1.0 2.0 0.00 0.00 0.00 55 1012.4
20260905233419 77 327 1.0 2.0 0.00 0.00 0.00 55 1012.4
20260905233351 77 314 1.0 1.0 0.00 0.00 0.00 55 1012.5
20260905233226 77 330 1.0 2.0 0.00 0.00 0.00 55 1012.4
20260905233141 77 329 1.0 2.0 0.00 0.00 0.00 54 1012.6
20260905233017 77 304 1.0 2.0 0.00 0.00 0.00 54 1012.3
20260905232928 77 276 1.0 2.0 0.00 0.00 0.00 54 1012.4
20260905232823 77 313 2.0 3.0 0.00 0.00 0.00 54 1012.4
20260905232719 77 302 2.0 3.0 0.00 0.00 0.00 53 1012.5
20260905232630 77 0.0 0.0 0.00 0.00 0.00 53 1012.6
20260905232526 77 0.0 0.0 0.00 0.00 0.00 54 1012.5
20260905232441 78 352 1.0 1.0 0.00 0.00 0.00 54 1012.4
20260905232317 78 352 1.0 1.0 0.00 0.00 0.00 54 1012.5
20260905232229 78 338 2.0 3.0 0.00 0.00 0.00 53 1012.4
20260905232124 78 316 1.0 2.0 0.00 0.00 0.00 53 1012.4
20260905232020 78 331 3.0 4.0 0.00 0.00 0.00 53 1012.3
20260905231915 78 315 2.0 2.0 0.00 0.00 0.00 53 1012.4
20260905231827 78 309 1.0 2.0 0.00 0.00 0.00 52 1012.4
20260905231722 78 311 1.0 2.0 0.00 0.00 0.00 52 1012.4
20260905231618 78 313 1.0 3.0 0.00 0.00 0.00 52 1012.4
20260905231530 78 318 2.0 3.0 0.00 0.00 0.00 51 1012.3
20260905231425 78 0.0 0.0 0.00 0.00 0.00 51 1012.3
20260905231321 78 0.0 0.0 0.00 0.00 0.00 51 1012.4
20260905231236 78 0.0 0.0 0.00 0.00 0.00 52 1012.5
20260905231128 79 298 0.0 1.0 0.00 0.00 0.00 51 1012.5
20260905231024 79 299 0.0 1.0 0.00 0.00 0.00 51 1012.3
20260905230919 79 298 0.0 1.0 0.00 0.00 0.00 51 1012.4
20260905230851 79 299 1.0 1.0 0.00 0.00 0.00 51 1012.5
20260905230726 79 311 2.0 3.0 0.00 0.00 0.00 51 1012.5
20260905230622 79 330 1.0 4.0 0.00 0.00 0.00 50 1012.5
20260905230517 79 315 1.0 2.0 0.00 0.00 0.00 50 1012.6
20260905230449 79 315 2.0 3.0 0.00 0.00 0.00 50 1012.6
20260905230344 79 311 3.0 4.0 0.00 0.00 0.00 50 1012.6
20260905230220 80 298 2.0 3.0 0.00 0.00 0.00 50 1012.4
20260905230156 80 285 0.0 1.0 0.00 0.00 0.00 50 1012.5
20260905230027 80 284 1.0 2.0 0.00 0.00 0.00 50 1012.6
20260905225943 80 311 1.0 2.0 0.00 0.00 0.00 49 1012.7
20260905225858 80 323 1.0 2.0 0.00 0.00 0.00 49 1012.6
20260905225730 80 336 1.0 3.0 0.00 0.00 0.00 49 1012.6
20260905225625 80 338 1.0 2.0 0.00 0.00 0.00 49 1012.6
20260905225521 80 331 2.0 4.0 0.00 0.00 0.00 49 1012.5
20260905225416 81 310 2.0 2.0 0.00 0.00 0.00 49 1012.4
20260905225347 81 305 2.0 3.0 0.00 0.00 0.00 49 1012.6
20260905225222 81 311 1.0 3.0 0.00 0.00 0.00 48 1012.4
20260905225118 81 339 1.0 1.0 0.00 0.00 0.00 48 1012.5
20260905225029 81 336 1.0 3.0 0.00 0.00 0.00 48 1012.5
20260905224925 81 339 0.0 1.0 0.00 0.00 0.00 48 1012.5
20260905224821 81 340 2.0 3.0 0.00 0.00 0.00 47 1012.4
20260905224716 82 315 1.0 2.0 0.00 0.00 0.00 47 1012.4
20260905224628 82 333 1.0 1.0 0.00 0.00 0.00 47 1012.5
20260905224523 82 328 1.0 2.0 0.00 0.00 0.00 47 1012.3
20260905224419 82 324 1.0 2.0 0.00 0.00 0.00 46 1012.4
20260905224330 82 324 2.0 4.0 0.00 0.00 0.00 47 1012.6
20260905224226 82 343 1.0 3.0 0.00 0.00 0.00 46 1012.3
20260905224142 83 314 0.0 2.0 0.00 0.00 0.00 47 1012.4
20260905224037 83 304 0.0 1.0 0.00 0.00 0.00 46 1012.2
20260905223929 83 304 0.0 2.0 0.00 0.00 0.00 45 1012.3
20260905223825 83 305 0.0 1.0 0.00 0.00 0.00 46 1012.3
20260905223720 83 306 1.0 2.0 0.00 0.00 0.00 46 1012.3
20260905223636 83 311 2.0 2.0 0.00 0.00 0.00 45 1012.0
20260905223527 83 282 2.0 3.0 0.00 0.00 0.00 45 1012.4
20260905223422 84 308 3.0 3.0 0.00 0.00 0.00 45 1012.2
20260905223318 84 295 2.0 2.0 0.00 0.00 0.00 46 1012.1
20260905223229 84 330 1.0 3.0 0.00 0.00 0.00 47 1012.2
20260905223125 84 360 1.0 1.0 0.00 0.00 0.00 47 1012.3
20260905223020 84 353 1.0 2.0 0.00 0.00 0.00 47 1012.2
20260905222916 83 0.0 0.0 0.00 0.00 0.00 49 1012.3
20260905222828 83 0.0 0.0 0.00 0.00 0.00 50 1012.2
20260905222743 83 339 0.0 1.0 0.00 0.00 0.00 50 1012.3
20260905222619 83 0.0 0.0 0.00 0.00 0.00 49 1012.4
20260905222530 83 338 1.0 2.0 0.00 0.00 0.00 49 1012.3
20260905222426 82 258 1.0 1.0 0.00 0.00 0.00 48 1012.4
20260905222321 82 257 1.0 1.0 0.00 0.00 0.00 48 1012.5
20260905222217 82 239 0.0 2.0 0.00 0.00 0.00 48 1012.4
20260905222129 82 292 1.0 2.0 0.00 0.00 0.00 48 1012.5
20260905222024 82 315 1.0 3.0 0.00 0.00 0.00 47 1012.6
20260905221920 82 301 4.0 4.0 0.00 0.00 0.00 47 1012.4
20260905221851 82 293 3.0 3.0 0.00 0.00 0.00 48 1012.5
20260905221726 81 268 1.0 2.0 0.00 0.00 0.00 49 1012.4
20260905221622 81 309 1.0 1.0 0.00 0.00 0.00 50 1012.4
20260905221517 81 310 1.0 2.0 0.00 0.00 0.00 50 1012.2
20260905221429 81 240 1.0 2.0 0.00 0.00 0.00 49 1012.2
20260905221324 81 240 1.0 3.0 0.00 0.00 0.00 49 1012.0
20260905221240 81 341 1.0 2.0 0.00 0.00 0.00 49 1012.2
20260905221136 81 351 1.0 3.0 0.00 0.00 0.00 48 1012.1
20260905221027 81 297 2.0 4.0 0.00 0.00 0.00 48 1012.3
20260905220922 81 288 3.0 4.0 0.00 0.00 0.00 48 1012.3
20260905220816 81 249 3.0 4.0 0.00 0.00 0.00 48 1012.1
20260905220727 81 303 1.0 2.0 0.00 0.00 0.00 48 1012.3
20260905220622 81 292 3.0 7.0 0.00 0.00 0.00 48 1012.2
20260905220518 81 249 3.0 4.0 0.00 0.00 0.00 49 1012.2
20260905220449 81 258 2.0 4.0 0.00 0.00 0.00 49 1012.1
20260905220345 80 280 2.0 2.0 0.00 0.00 0.00 50 1012.2
20260905220220 80 329 0.0 1.0 0.00 0.00 0.00 49 1012.0
20260905220116 80 330 0.0 1.0 0.00 0.00 0.00 49 1012.0
20260905220048 80 0.0 0.0 0.00 0.00 0.00 49 1012.1
20260905215923 80 330 0.0 1.0 0.00 0.00 0.00 49 1012.1
20260905215819 80 313 3.0 3.0 0.00 0.00 0.00 49 1012.0
20260905215731 80 305 0.0 2.0 0.00 0.00 0.00 49 1012.0
20260905215626 81 305 1.0 3.0 0.00 0.00 0.00 49 1012.0
20260905215521 81 303 2.0 3.0 0.00 0.00 0.00 48 1012.1
20260905215417 81 306 1.0 1.0 0.00 0.00 0.00 48 1011.9
20260905215329 81 301 1.0 2.0 0.00 0.00 0.00 48 1012.2
20260905215224 81 298 3.0 6.0 0.00 0.00 0.00 47 1012.0
20260905215120 81 308 3.0 6.0 0.00 0.00 0.00 49 1012.1
20260905215031 81 316 2.0 4.0 0.00 0.00 0.00 49 1012.0
20260905214926 81 0.0 0.0 0.00 0.00 0.00 49 1011.9
20260905214821 81 0.0 0.0 0.00 0.00 0.00 49 1012.0
20260905214716 81 330 0.0 1.0 0.00 0.00 0.00 49 1012.0
20260905214628 81 329 0.0 1.0 0.00 0.00 0.00 48 1012.1
20260905214523 81 333 1.0 3.0 0.00 0.00 0.00 48 1012.0
20260905214419 81 315 1.0 1.0 0.00 0.00 0.00 47 1011.9
20260905214331 81 313 1.0 2.0 0.00 0.00 0.00 47 1012.0
20260905214226 81 309 2.0 3.0 0.00 0.00 0.00 47 1012.1
20260905214122 81 318 1.0 2.0 0.00 0.00 0.00 48 1012.0
20260905214017 81 319 1.0 1.0 0.00 0.00 0.00 48 1012.1
20260905213929 81 318 1.0 2.0 0.00 0.00 0.00 48 1012.0
20260905213824 81 320 0.0 1.0 0.00 0.00 0.00 47 1012.0
20260905213720 81 320 0.0 1.0 0.00 0.00 0.00 47 1011.9
20260905213651 81 319 1.0 2.0 0.00 0.00 0.00 46 1012.0
20260905213527 81 303 3.0 4.0 0.00 0.00 0.00 47 1012.0
20260905213442 81 282 2.0 3.0 0.00 0.00 0.00 46 1012.0
20260905213357 81 280 2.0 2.0 0.00 0.00 0.00 48 1011.9
20260905213229 81 317 2.0 3.0 0.00 0.00 0.00 48 1012.0
20260905213125 81 311 1.0 3.0 0.00 0.00 0.00 47 1012.0
20260905213020 81 292 2.0 4.0 0.00 0.00 0.00 48 1012.3
20260905212916 81 308 1.0 2.0 0.00 0.00 0.00 49 1012.2
20260905212827 81 308 1.0 1.0 0.00 0.00 0.00 49 1012.1
20260905212723 81 308 0.0 1.0 0.00 0.00 0.00 48 1012.1
20260905212618 81 309 0.0 1.0 0.00 0.00 0.00 48 1012.2
20260905212530 81 309 1.0 1.0 0.00 0.00 0.00 48 1012.0
20260905212426 81 301 2.0 4.0 0.00 0.00 0.00 47 1012.0
20260905212401 81 309 2.0 4.0 0.00 0.00 0.00 46 1012.1
20260905212217 81 298 4.0 7.0 0.00 0.00 0.00 47 1012.0
20260905212128 81 305 1.0 4.0 0.00 0.00 0.00 47 1012.0
20260905212024 81 287 1.0 2.0 0.00 0.00 0.00 47 1012.1
20260905211919 81 288 1.0 3.0 0.00 0.00 0.00 47 1011.9
20260905211815 81 256 2.0 4.0 0.00 0.00 0.00 47 1012.0
20260905211727 81 270 1.0 3.0 0.00 0.00 0.00 47 1012.0
20260905211622 81 325 2.0 4.0 0.00 0.00 0.00 48 1012.0
20260905211517 81 311 1.0 2.0 0.00 0.00 0.00 48 1012.1
20260905211429 81 311 0.0 1.0 0.00 0.00 0.00 48 1011.9
20260905211325 81 0.0 0.0 0.00 0.00 0.00 48 1011.8
20260905211240 81 0.0 0.0 0.00 0.00 0.00 48 1011.8
20260905211116 82 311 0.0 1.0 0.00 0.00 0.00 48 1011.9
20260905211028 82 311 1.0 1.0 0.00 0.00 0.00 48 1011.9
20260905210923 82 298 3.0 3.0 0.00 0.00 0.00 46 1011.9
20260905210819 82 306 3.0 4.0 0.00 0.00 0.00 47 1012.1
20260905210750 82 319 0.0 1.0 0.00 0.00 0.00 46 1012.0
20260905210646 82 314 2.0 3.0 0.00 0.00 0.00 47 1011.8
20260905210521 82 314 0.0 1.0 0.00 0.00 0.00 48 1012.0
20260905210417 82 0.0 0.0 0.00 0.00 0.00 47 1011.8
20260905210329 82 0.0 0.0 0.00 0.00 0.00 47 1011.8
20260905210244 82 315 0.0 1.0 0.00 0.00 0.00 46 1011.8
20260905210120 82 311 1.0 2.0 0.00 0.00 0.00 47 1011.8
20260905210035 82 258 1.0 2.0 0.00 0.00 0.00 48 1011.9
20260905205947 82 214 1.0 1.0 0.00 0.00 0.00 48 1011.9
20260905205842 82 176 0.0 1.0 0.00 0.00 0.00 47 1011.8
20260905205730 82 0.0 0.0 0.00 0.00 0.00 48 1011.6
20260905205545 82 177 0.0 1.0 0.00 0.00 0.00 48 1011.8
20260905205421 82 178 0.0 1.0 0.00 0.00 0.00 47 1011.8
20260905205316 82 178 0.0 1.0 0.00 0.00 0.00 47 1011.8
20260905205228 82 178 0.0 1.0 0.00 0.00 0.00 47 1011.8
20260905205123 82 206 1.0 2.0 0.00 0.00 0.00 47 1011.9
20260905205019 82 212 1.0 2.0 0.00 0.00 0.00 46 1011.8
20260905204931 82 27 1.0 2.0 0.00 0.00 0.00 47 1011.8
20260905204825 82 285 1.0 1.0 0.00 0.00 0.00 46 1011.8
20260905204721 82 284 1.0 1.0 0.00 0.00 0.00 46 1011.7
20260905204616 82 286 1.0 2.0 0.00 0.00 0.00 47 1011.8
20260905204528 82 289 1.0 2.0 0.00 0.00 0.00 47 1011.7
20260905204444 82 289 0.0 2.0 0.00 0.00 0.00 47 1011.8
20260905204319 82 292 0.0 1.0 0.00 0.00 0.00 47 1011.9
20260905204231 81 301 1.0 3.0 0.00 0.00 0.00 47 1011.8
20260905204127 81 302 2.0 3.0 0.00 0.00 0.00 47 1011.7
20260905204042 81 294 2.0 3.0 0.00 0.00 0.00 48 1011.8
20260905203958 81 305 4.0 6.0 0.00 0.00 0.00 48 1011.7
20260905203829 81 287 1.0 3.0 0.00 0.00 0.00 48 1011.7
20260905203745 81 240 2.0 3.0 0.00 0.00 0.00 47 1011.6
20260905203641 81 247 4.0 4.0 0.00 0.00 0.00 47 1011.7
20260905203516 81 259 3.0 6.0 0.00 0.00 0.00 48 1011.7
20260905203428 81 310 2.0 3.0 0.00 0.00 0.00 47 1011.8
20260905203323 81 272 4.0 9.0 0.00 0.00 0.00 50 1011.9
20260905203219 81 290 4.0 6.0 0.00 0.00 0.00 48 1011.9
20260905203130 81 291 4.0 6.0 0.00 0.00 0.00 48 1011.8
20260905203026 81 259 2.0 4.0 0.00 0.00 0.00 47 1011.8
20260905202942 81 307 1.0 3.0 0.00 0.00 0.00 48 1011.8
20260905202817 80 290 2.0 3.0 0.00 0.00 0.00 47 1011.7
20260905202729 80 253 2.0 4.0 0.00 0.00 0.00 48 1011.8
20260905202624 80 283 4.0 6.0 0.00 0.00 0.00 48 1011.8
20260905202520 80 300 4.0 7.0 0.00 0.00 0.00 48 1011.7
20260905202416 80 303 3.0 6.0 0.00 0.00 0.00 47 1011.8
20260905202347 81 288 3.0 4.0 0.00 0.00 0.00 45 1011.7
20260905202222 81 252 5.0 8.0 0.00 0.00 0.00 46 1011.8
20260905202118 81 284 3.0 3.0 0.00 0.00 0.00 47 1011.8
20260905202049 81 307 3.0 4.0 0.00 0.00 0.00 46 1011.8
20260905201925 81 270 2.0 4.0 0.00 0.00 0.00 46 1011.8
20260905201841 81 271 3.0 4.0 0.00 0.00 0.00 47 1012.0
20260905201716 81 266 2.0 3.0 0.00 0.00 0.00 48 1011.8
20260905201628 81 302 2.0 2.0 0.00 0.00 0.00 49 1011.8
20260905201523 81 317 2.0 3.0 0.00 0.00 0.00 49 1011.8
20260905201419 81 339 2.0 2.0 0.00 0.00 0.00 48 1011.9
20260905201331 81 346 3.0 4.0 0.00 0.00 0.00 48 1011.9
20260905201226 81 287 1.0 4.0 0.00 0.00 0.00 47 1011.8
20260905201141 81 290 2.0 4.0 0.00 0.00 0.00 47 1011.7
20260905201017 81 248 3.0 4.0 0.00 0.00 0.00 47 1011.8
20260905200929 81 308 1.0 2.0 0.00 0.00 0.00 49 1011.9
20260905200844 81 308 2.0 2.0 0.00 0.00 0.00 49 1012.0
20260905200720 81 305 1.0 3.0 0.00 0.00 0.00 48 1011.9
20260905200615 81 241 1.0 2.0 0.00 0.00 0.00 48 1011.8
20260905200607 81 239 1.0 2.0 0.00 0.00 0.00 48 1011.7
20260905200442 81 238 1.0 2.0 0.00 0.00 0.00 49 1011.8
20260905200318 80 241 2.0 4.0 0.00 0.00 0.00 48 1011.8
20260905200249 80 286 2.0 4.0 0.00 0.00 0.00 48 1011.8
20260905200145 80 320 0.0 1.0 0.00 0.00 0.00 47 1011.8
20260905200021 80 323 2.0 3.0 0.00 0.00 0.00 49 1011.7
20260905195916 80 292 3.0 6.0 0.00 0.00 0.00 49 1012.0
20260905195828 80 292 2.0 2.0 0.00 0.00 0.00 49 1012.0
20260905195723 80 285 3.0 6.0 0.00 0.00 0.00 49 1011.9
20260905195619 80 316 2.0 2.0 0.00 0.00 0.00 50 1012.0
20260905195531 80 322 0.0 1.0 0.00 0.00 0.00 50 1011.9
20260905195426 80 0.0 0.0 0.00 0.00 0.00 50 1011.8
20260905195321 80 323 1.0 1.0 0.00 0.00 0.00 50 1011.9
20260905195217 80 323 1.0 1.0 0.00 0.00 0.00 50 1012.0
20260905195128 80 324 2.0 2.0 0.00 0.00 0.00 49 1011.9
20260905195044 80 322 1.0 2.0 0.00 0.00 0.00 49 1011.9
20260905194919 80 325 1.0 2.0 0.00 0.00 0.00 49 1012.0
20260905194831 80 341 0.0 1.0 0.00 0.00 0.00 49 1011.9
20260905194725 80 354 1.0 2.0 0.00 0.00 0.00 49 1012.0
20260905194621 80 337 0.0 1.0 0.00 0.00 0.00 49 1012.1
20260905194537 80 337 0.0 1.0 0.00 0.00 0.00 48 1011.8
20260905194429 80 333 1.0 2.0 0.00 0.00 0.00 49 1011.9
20260905194324 80 309 3.0 4.0 0.00 0.00 0.00 49 1012.0
20260905194219 80 336 2.0 3.0 0.00 0.00 0.00 49 1011.8
20260905194115 81 278 3.0 4.0 0.00 0.00 0.00 48 1012.0
20260905194027 81 341 2.0 7.0 0.00 0.00 0.00 47 1011.9
20260905193922 81 239 2.0 4.0 0.00 0.00 0.00 48 1012.0
20260905193818 81 285 1.0 2.0 0.00 0.00 0.00 48 1011.9
20260905193729 81 282 1.0 1.0 0.00 0.00 0.00 49 1012.0
20260905193625 81 282 1.0 1.0 0.00 0.00 0.00 49 1012.0
20260905193521 81 282 1.0 2.0 0.00 0.00 0.00 49 1012.1
20260905193416 81 282 0.0 1.0 0.00 0.00 0.00 49 1011.8
20260905193328 81 282 0.0 1.0 0.00 0.00 0.00 49 1011.9
20260905193224 81 281 1.0 2.0 0.00 0.00 0.00 48 1011.9
20260905193119 81 290 1.0 2.0 0.00 0.00 0.00 48 1011.8
20260905193031 81 309 2.0 3.0 0.00 0.00 0.00 48 1011.7
20260905192926 81 307 0.0 1.0 0.00 0.00 0.00 48 1012.0
20260905192822 80 295 1.0 3.0 0.00 0.00 0.00 47 1011.9
20260905192718 81 307 4.0 6.0 0.00 0.00 0.00 48 1011.9
20260905192629 81 251 4.0 7.0 0.00 0.00 0.00 49 1011.8
20260905192525 80 292 2.0 3.0 0.00 0.00 0.00 50 1012.0
20260905192420 80 313 0.0 1.0 0.00 0.00 0.00 49 1011.8
20260905192316 81 0.0 0.0 0.00 0.00 0.00 49 1012.0
20260905192227 81 313 0.0 1.0 0.00 0.00 0.00 48 1012.0
20260905192123 81 313 0.0 1.0 0.00 0.00 0.00 48 1011.9
20260905192038 81 285 2.0 3.0 0.00 0.00 0.00 47 1011.9
20260905191930 81 292 3.0 4.0 0.00 0.00 0.00 48 1012.1
20260905191845 81 294 2.0 3.0 0.00 0.00 0.00 48 1012.0
20260905191721 81 294 3.0 4.0 0.00 0.00 0.00 48 1012.1
20260905191616 81 301 4.0 6.0 0.00 0.00 0.00 48 1012.0
20260905191528 81 293 2.0 3.0 0.00 0.00 0.00 49 1012.0
20260905191424 81 252 2.0 2.0 0.00 0.00 0.00 49 1012.0
20260905191319 81 265 1.0 2.0 0.00 0.00 0.00 49 1012.0
20260905191230 81 261 2.0 4.0 0.00 0.00 0.00 48 1012.0
20260905191125 81 112 1.0 2.0 0.00 0.00 0.00 48 1012.0
20260905191021 81 138 2.0 2.0 0.00 0.00 0.00 47 1012.0
20260905190917 81 255 3.0 3.0 0.00 0.00 0.00 49 1012.2
20260905190828 81 321 3.0 6.0 0.00 0.00 0.00 49 1011.9
20260905190724 81 317 2.0 4.0 0.00 0.00 0.00 48 1011.9
20260905190619 81 255 2.0 3.0 0.00 0.00 0.00 49 1011.8
20260905190531 81 252 1.0 4.0 0.00 0.00 0.00 49 1011.8
20260905190426 81 4 1.0 1.0 0.00 0.00 0.00 49 1011.8
20260905190322 81 5 1.0 1.0 0.00 0.00 0.00 48 1011.9
20260905190217 81 359 1.0 3.0 0.00 0.00 0.00 48 1011.9
20260905190129 81 339 3.0 4.0 0.00 0.00 0.00 48 1011.9
20260905190025 80 322 4.0 8.0 0.00 0.00 0.00 48 1012.0
20260905190000 80 290 2.0 3.0 0.00 0.00 0.00 49 1012.1
20260905185816 80 285 3.0 4.0 0.00 0.00 0.00 49 1012.0
20260905185727 80 293 3.0 7.0 0.00 0.00 0.00 48 1012.0
20260905185622 80 312 5.0 8.0 0.00 0.00 0.00 48 1011.8
20260905185518 80 294 6.0 9.0 0.00 0.00 0.00 47 1011.9
20260905185450 80 322 5.0 7.0 0.00 0.00 0.00 48 1012.1
20260905185325 80 315 2.0 3.0 0.00 0.00 0.00 48 1012.0
20260905185241 80 306 2.0 4.0 0.00 0.00 0.00 48 1011.9
20260905185136 80 302 4.0 9.0 0.00 0.00 0.00 48 1012.0
20260905185028 80 297 4.0 8.0 0.00 0.00 0.00 48 1012.1
20260905184923 80 243 3.0 6.0 0.00 0.00 0.00 48 1012.1
20260905184819 80 267 3.0 4.0 0.00 0.00 0.00 48 1012.1
20260905184731 80 287 3.0 4.0 0.00 0.00 0.00 48 1012.3
20260905184625 80 297 4.0 4.0 0.00 0.00 0.00 47 1012.0
20260905184521 80 298 3.0 4.0 0.00 0.00 0.00 47 1012.0
20260905184437 80 302 2.0 6.0 0.00 0.00 0.00 47 1012.1
20260905184328 80 288 2.0 6.0 0.00 0.00 0.00 47 1012.0
20260905184224 80 297 1.0 4.0 0.00 0.00 0.00 47 1012.2
20260905184119 80 300 4.0 7.0 0.00 0.00 0.00 47 1012.1
20260905184050 80 300 4.0 6.0 0.00 0.00 0.00 47 1012.1
20260905183946 80 304 4.0 7.0 0.00 0.00 0.00 46 1012.1
20260905183822 80 311 6.0 7.0 0.00 0.00 0.00 48 1012.2
20260905183717 80 317 3.0 6.0 0.00 0.00 0.00 47 1012.1
20260905183629 79 310 4.0 7.0 0.00 0.00 0.00 48 1012.1
20260905183524 79 317 2.0 4.0 0.00 0.00 0.00 48 1012.1
20260905183419 79 339 1.0 1.0 0.00 0.00 0.00 48 1012.1
20260905183335 79 311 3.0 6.0 0.00 0.00 0.00 48 1012.3
20260905183227 79 299 4.0 7.0 0.00 0.00 0.00 48 1012.2
20260905183122 79 270 5.0 9.0 0.00 0.00 0.00 48 1012.2
20260905183038 79 287 3.0 6.0 0.00 0.00 0.00 47 1012.1
20260905182950 79 252 4.0 8.0 0.00 0.00 0.00 47 1012.3
20260905182825 79 320 5.0 8.0 0.00 0.00 0.00 48 1012.4
20260905182741 79 294 3.0 7.0 0.00 0.00 0.00 48 1012.2
20260905182616 79 303 1.0 2.0 0.00 0.00 0.00 48 1012.2
20260905182527 79 303 4.0 8.0 0.00 0.00 0.00 48 1012.2
20260905182422 78 309 5.0 8.0 0.00 0.00 0.00 49 1012.1
20260905182318 78 255 4.0 6.0 0.00 0.00 0.00 48 1012.2
20260905182310 79 241 5.0 10.0 0.00 0.00 0.00 47 1012.3
20260905182125 79 231 6.0 10.0 0.00 0.00 0.00 47 1012.2
20260905182041 79 252 5.0 8.0 0.00 0.00 0.00 48 1012.3
20260905181916 79 322 5.0 9.0 0.00 0.00 0.00 49 1012.2
20260905181908 79 288 4.0 9.0 0.00 0.00 0.00 48 1012.2
20260905181723 79 257 3.0 7.0 0.00 0.00 0.00 48 1012.3
20260905181619 79 315 3.0 4.0 0.00 0.00 0.00 48 1012.2
20260905181531 79 323 3.0 4.0 0.00 0.00 0.00 48 1012.2
20260905181426 79 297 2.0 4.0 0.00 0.00 0.00 49 1012.4
20260905181321 79 285 1.0 2.0 0.00 0.00 0.00 50 1012.4
20260905181217 79 299 3.0 4.0 0.00 0.00 0.00 49 1012.2
20260905181128 79 287 3.0 6.0 0.00 0.00 0.00 48 1012.4
20260905181024 79 297 6.0 8.0 0.00 0.00 0.00 49 1012.4
20260905180919 79 269 4.0 7.0 0.00 0.00 0.00 49 1012.2
20260905180831 79 279 3.0 6.0 0.00 0.00 0.00 48 1012.4
20260905180726 79 286 6.0 10.0 0.00 0.00 0.00 47 1012.3
20260905180621 79 315 5.0 8.0 0.00 0.00 0.00 47 1012.3
20260905180536 79 262 3.0 6.0 0.00 0.00 0.00 47 1012.1
20260905180428 79 301 3.0 4.0 0.00 0.00 0.00 47 1012.3
20260905180323 79 329 3.0 4.0 0.00 0.00 0.00 48 1012.3
20260905180218 79 330 5.0 7.0 0.00 0.00 0.00 47 1012.4
20260905180129 79 279 4.0 6.0 0.00 0.00 0.00 48 1012.3
20260905180045 79 289 5.0 9.0 0.00 0.00 0.00 49 1012.1
20260905175919 79 273 4.0 9.0 0.00 0.00 0.00 49 1012.3
20260905175831 79 308 3.0 6.0 0.00 0.00 0.00 49 1012.2
20260905175726 79 317 3.0 8.0 0.00 0.00 0.00 48 1012.2
20260905175622 79 319 1.0 2.0 0.00 0.00 0.00 47 1012.2
20260905175517 79 254 3.0 6.0 0.00 0.00 0.00 47 1012.3
20260905175448 79 247 5.0 7.0 0.00 0.00 0.00 47 1012.3
20260905175324 79 235 5.0 7.0 0.00 0.00 0.00 48 1012.4
20260905175220 79 329 3.0 4.0 0.00 0.00 0.00 47 1012.4
20260905175115 79 254 3.0 7.0 0.00 0.00 0.00 47 1012.4
20260905175048 80 234 5.0 7.0 0.00 0.00 0.00 46 1012.4
20260905174922 80 248 4.0 7.0 0.00 0.00 0.00 47 1012.6
20260905174858 80 289 3.0 3.0 0.00 0.00 0.00 48 1012.5
20260905174729 80 300 2.0 3.0 0.00 0.00 0.00 48 1012.4
20260905174625 80 301 1.0 2.0 0.00 0.00 0.00 48 1012.4
20260905174520 80 305 2.0 3.0 0.00 0.00 0.00 47 1012.5
20260905174416 80 292 3.0 4.0 0.00 0.00 0.00 46 1012.5
20260905174328 80 294 4.0 6.0 0.00 0.00 0.00 47 1012.4
20260905174223 80 292 3.0 6.0 0.00 0.00 0.00 47 1012.4
20260905174119 80 342 5.0 7.0 0.00 0.00 0.00 46 1012.4
20260905174031 80 342 4.0 9.0 0.00 0.00 0.00 48 1012.4
20260905173926 80 353 1.0 1.0 0.00 0.00 0.00 49 1012.4
20260905173822 80 89 1.0 2.0 0.00 0.00 0.00 49 1012.3
20260905173717 80 96 0.0 1.0 0.00 0.00 0.00 48 1012.5
20260905173628 80 101 1.0 2.0 0.00 0.00 0.00 48 1012.4
20260905173524 80 87 1.0 1.0 0.00 0.00 0.00 48 1012.4
20260905173420 80 51 1.0 2.0 0.00 0.00 0.00 48 1012.4
20260905173315 80 1 0.0 1.0 0.00 0.00 0.00 48 1012.4
20260905173227 80 358 1.0 2.0 0.00 0.00 0.00 48 1012.4
20260905173122 80 319 1.0 1.0 0.00 0.00 0.00 48 1012.5
20260905173018 80 318 0.0 1.0 0.00 0.00 0.00 47 1012.5
20260905172949 80 316 1.0 2.0 0.00 0.00 0.00 47 1012.4
20260905172825 80 322 2.0 3.0 0.00 0.00 0.00 47 1012.5
20260905172721 80 305 3.0 4.0 0.00 0.00 0.00 47 1012.4
20260905172616 80 326 2.0 3.0 0.00 0.00 0.00 47 1012.6
20260905172528 80 308 2.0 4.0 0.00 0.00 0.00 47 1012.6
20260905172423 80 273 3.0 7.0 0.00 0.00 0.00 46 1012.5
20260905172319 80 275 2.0 3.0 0.00 0.00 0.00 46 1012.6
20260905172231 81 236 4.0 6.0 0.00 0.00 0.00 47 1012.6
20260905172126 81 319 4.0 6.0 0.00 0.00 0.00 46 1012.6
20260905172022 81 307 3.0 6.0 0.00 0.00 0.00 46 1012.5
20260905171917 81 333 5.0 8.0 0.00 0.00 0.00 47 1012.5
20260905171829 80 353 1.0 3.0 0.00 0.00 0.00 49 1012.5
20260905171724 80 320 1.0 1.0 0.00 0.00 0.00 48 1012.4
20260905171620 80 313 1.0 2.0 0.00 0.00 0.00 47 1012.5
20260905171515 80 300 3.0 7.0 0.00 0.00 0.00 48 1012.4
20260905171427 80 269 1.0 3.0 0.00 0.00 0.00 48 1012.6
20260905171342 80 256 2.0 4.0 0.00 0.00 0.00 47 1012.7
20260905171218 80 197 1.0 2.0 0.00 0.00 0.00 46 1012.5
20260905171130 80 305 2.0 3.0 0.00 0.00 0.00 47 1012.6
20260905171025 80 302 3.0 7.0 0.00 0.00 0.00 47 1012.7
20260905170921 80 302 4.0 6.0 0.00 0.00 0.00 47 1012.8
20260905170836 80 312 1.0 2.0 0.00 0.00 0.00 47 1012.8
20260905170748 80 316 1.0 2.0 0.00 0.00 0.00 47 1012.7
20260905170623 80 330 1.0 2.0 0.00 0.00 0.00 46 1012.7
20260905170519 80 338 2.0 3.0 0.00 0.00 0.00 46 1012.8
20260905170430 80 326 2.0 3.0 0.00 0.00 0.00 47 1012.7
20260905170326 80 4 2.0 3.0 0.00 0.00 0.00 46 1012.7
20260905170221 80 56 1.0 3.0 0.00 0.00 0.00 47 1012.5
20260905170137 80 11 1.0 2.0 0.00 0.00 0.00 46 1012.8
20260905170028 80 320 1.0 1.0 0.00 0.00 0.00 46 1012.5
20260905165924 80 338 1.0 2.0 0.00 0.00 0.00 47 1012.6
20260905165820 80 339 1.0 3.0 0.00 0.00 0.00 46 1012.5
20260905165731 80 308 2.0 4.0 0.00 0.00 0.00 46 1012.7
20260905165626 80 318 4.0 6.0 0.00 0.00 0.00 47 1012.7
20260905165522 80 315 1.0 2.0 0.00 0.00 0.00 46 1012.5
20260905165418 80 251 2.0 7.0 0.00 0.00 0.00 45 1012.5
20260905165329 81 266 5.0 8.0 0.00 0.00 0.00 45 1012.7
20260905165225 81 248 4.0 7.0 0.00 0.00 0.00 44 1012.8
20260905165120 81 247 3.0 4.0 0.00 0.00 0.00 45 1012.7
20260905165016 81 312 2.0 4.0 0.00 0.00 0.00 44 1012.4
20260905164947 81 312 2.0 2.0 0.00 0.00 0.00 44 1012.7
20260905164822 81 270 1.0 3.0 0.00 0.00 0.00 44 1012.7
20260905164718 81 245 3.0 3.0 0.00 0.00 0.00 44 1012.8
20260905164630 81 259 4.0 6.0 0.00 0.00 0.00 46 1012.6
20260905164525 81 325 2.0 4.0 0.00 0.00 0.00 47 1012.7
20260905164420 81 266 4.0 6.0 0.00 0.00 0.00 46 1012.7
20260905164316 81 262 0.0 2.0 0.00 0.00 0.00 46 1012.6
20260905164228 81 320 0.0 1.0 0.00 0.00 0.00 46 1012.7
20260905164123 80 261 2.0 2.0 0.00 0.00 0.00 47 1012.7
20260905164019 80 273 1.0 2.0 0.00 0.00 0.00 47 1012.7
20260905163931 80 327 0.0 1.0 0.00 0.00 0.00 48 1012.7
20260905163825 80 330 1.0 1.0 0.00 0.00 0.00 47 1012.7
20260905163721 80 329 0.0 1.0 0.00 0.00 0.00 46 1012.6
20260905163616 80 329 1.0 1.0 0.00 0.00 0.00 45 1012.9
20260905163528 80 337 1.0 2.0 0.00 0.00 0.00 46 1012.9
20260905163424 80 330 2.0 4.0 0.00 0.00 0.00 45 1012.9
20260905163319 80 314 3.0 3.0 0.00 0.00 0.00 45 1013.0
20260905163215 80 292 3.0 6.0 0.00 0.00 0.00 46 1012.9
20260905163147 80 295 1.0 1.0 0.00 0.00 0.00 47 1012.9
20260905163022 80 65 1.0 2.0 0.00 0.00 0.00 48 1013.0
20260905162918 80 83 1.0 2.0 0.00 0.00 0.00 47 1012.8
20260905162829 80 87 1.0 2.0 0.00 0.00 0.00 47 1013.0
20260905162745 80 89 1.0 2.0 0.00 0.00 0.00 47 1012.8
20260905162621 80 91 1.0 3.0 0.00 0.00 0.00 46 1012.8
20260905162516 80 73 2.0 3.0 0.00 0.00 0.00 46 1012.8
20260905162428 80 54 1.0 3.0 0.00 0.00 0.00 46 1012.8
20260905162324 80 325 2.0 3.0 0.00 0.00 0.00 46 1012.8
20260905162219 80 306 2.0 2.0 0.00 0.00 0.00 46 1012.7
20260905162131 80 307 3.0 4.0 0.00 0.00 0.00 47 1012.8
20260905162026 80 306 2.0 3.0 0.00 0.00 0.00 46 1013.0
20260905161922 80 331 3.0 6.0 0.00 0.00 0.00 45 1012.8
20260905161818 80 298 4.0 6.0 0.00 0.00 0.00 45 1012.8
20260905161729 80 307 4.0 8.0 0.00 0.00 0.00 44 1012.7
20260905161625 80 317 4.0 6.0 0.00 0.00 0.00 44 1012.8
20260905161521 80 324 3.0 7.0 0.00 0.00 0.00 47 1012.6
20260905161448 80 289 2.0 3.0 0.00 0.00 0.00 48 1012.9
20260905161428 80 345 1.0 2.0 0.00 0.00 0.00 47 1012.8
20260905161223 80 314 2.0 4.0 0.00 0.00 0.00 46 1012.8
20260905161119 80 302 3.0 4.0 0.00 0.00 0.00 46 1012.8
20260905161031 80 240 5.0 8.0 0.00 0.00 0.00 47 1012.6
20260905160926 80 301 2.0 3.0 0.00 0.00 0.00 48 1012.8
20260905160821 79 308 1.0 2.0 0.00 0.00 0.00 49 1012.9
20260905160737 79 302 2.0 3.0 0.00 0.00 0.00 49 1012.9
20260905160649 79 326 0.0 1.0 0.00 0.00 0.00 49 1012.7
20260905160524 79 311 3.0 4.0 0.00 0.00 0.00 48 1012.9
20260905160420 79 289 5.0 8.0 0.00 0.00 0.00 49 1012.7
20260905160315 79 348 1.0 3.0 0.00 0.00 0.00 50 1012.6
20260905160227 78 32 0.0 1.0 0.00 0.00 0.00 51 1012.8
20260905160143 78 33 0.0 1.0 0.00 0.00 0.00 50 1012.9
20260905160018 78 33 1.0 2.0 0.00 0.00 0.00 51 1012.7
20260905155950 78 78 2.0 2.0 0.00 0.00 0.00 51 1012.7
20260905155825 78 231 1.0 1.0 0.00 0.00 0.00 50 1012.7
20260905155721 78 248 2.0 2.0 0.00 0.00 0.00 50 1012.6
20260905155616 78 278 1.0 1.0 0.00 0.00 0.00 50 1012.7
20260905155528 78 277 3.0 6.0 0.00 0.00 0.00 50 1012.9
20260905155424 78 256 3.0 7.0 0.00 0.00 0.00 49 1012.8
20260905155339 78 289 3.0 4.0 0.00 0.00 0.00 49 1012.7
20260905155231 78 308 4.0 8.0 0.00 0.00 0.00 48 1012.7
20260905155146 78 278 3.0 4.0 0.00 0.00 0.00 48 1012.8
20260905155022 79 271 4.0 7.0 0.00 0.00 0.00 48 1012.7
20260905154938 79 293 3.0 4.0 0.00 0.00 0.00 48 1012.9
20260905154829 79 267 4.0 6.0 0.00 0.00 0.00 49 1012.7
20260905154725 79 247 4.0 8.0 0.00 0.00 0.00 50 1012.8
20260905154620 79 258 5.0 7.0 0.00 0.00 0.00 50 1012.8
20260905154516 79 277 4.0 7.0 0.00 0.00 0.00 51 1012.8
20260905154448 79 293 2.0 3.0 0.00 0.00 0.00 51 1012.6
20260905154343 79 280 4.0 8.0 0.00 0.00 0.00 51 1012.7
20260905154239 79 251 3.0 6.0 0.00 0.00 0.00 50 1012.7
20260905154130 79 302 2.0 2.0 0.00 0.00 0.00 49 1012.7
20260905154025 79 311 2.0 3.0 0.00 0.00 0.00 48 1012.6
20260905153921 79 321 3.0 4.0 0.00 0.00 0.00 48 1012.6
20260905153836 79 297 5.0 8.0 0.00 0.00 0.00 49 1012.5
20260905153748 79 267 4.0 8.0 0.00 0.00 0.00 50 1012.8
20260905153623 79 284 2.0 4.0 0.00 0.00 0.00 50 1012.8
20260905153519 79 274 2.0 4.0 0.00 0.00 0.00 51 1012.6
20260905153431 79 304 4.0 6.0 0.00 0.00 0.00 52 1012.7
20260905153346 79 243 3.0 6.0 0.00 0.00 0.00 52 1012.6
20260905153221 79 342 3.0 6.0 0.00 0.00 0.00 50 1012.7
20260905153117 79 290 3.0 6.0 0.00 0.00 0.00 51 1012.6
20260905153029 79 346 2.0 4.0 0.00 0.00 0.00 51 1012.7
20260905152944 79 296 2.0 4.0 0.00 0.00 0.00 50 1012.7
20260905152820 79 302 2.0 2.0 0.00 0.00 0.00 49 1012.7
20260905152715 79 281 3.0 7.0 0.00 0.00 0.00 49 1012.7
20260905152627 79 326 4.0 8.0 0.00 0.00 0.00 48 1012.6
20260905152542 80 309 7.0 9.0 0.00 0.00 0.00 49 1012.7
20260905152418 80 303 5.0 8.0 0.00 0.00 0.00 48 1012.8
20260905152330 80 322 4.0 7.0 0.00 0.00 0.00 49 1012.7
20260905152225 80 302 4.0 8.0 0.00 0.00 0.00 50 1012.6
20260905152121 80 322 2.0 3.0 0.00 0.00 0.00 50 1012.7
20260905152016 80 300 4.0 9.0 0.00 0.00 0.00 50 1012.7
20260905151928 80 320 2.0 6.0 0.00 0.00 0.00 49 1012.8
20260905151823 80 268 2.0 4.0 0.00 0.00 0.00 49 1012.8
20260905151719 81 298 3.0 4.0 0.00 0.00 0.00 49 1012.6
20260905151630 81 304 4.0 6.0 0.00 0.00 0.00 48 1012.7
20260905151526 81 342 2.0 4.0 0.00 0.00 0.00 49 1012.7
20260905151421 81 356 2.0 3.0 0.00 0.00 0.00 48 1012.7
20260905151317 81 322 4.0 7.0 0.00 0.00 0.00 48 1012.7
20260905151229 81 301 3.0 9.0 0.00 0.00 0.00 49 1012.8
20260905151124 81 30 2.0 2.0 0.00 0.00 0.00 48 1012.7
20260905151020 81 301 3.0 7.0 0.00 0.00 0.00 48 1012.6
20260905150915 81 295 2.0 4.0 0.00 0.00 0.00 48 1012.8
20260905150827 81 328 3.0 6.0 0.00 0.00 0.00 51 1012.8
20260905150742 80 313 2.0 3.0 0.00 0.00 0.00 51 1012.9
20260905150638 80 296 3.0 4.0 0.00 0.00 0.00 49 1012.9
20260905150529 80 269 3.0 4.0 0.00 0.00 0.00 49 1012.7
20260905150425 80 235 3.0 4.0 0.00 0.00 0.00 50 1012.8
20260905150320 80 271 4.0 8.0 0.00 0.00 0.00 50 1012.9
20260905150216 80 259 3.0 7.0 0.00 0.00 0.00 50 1012.8
20260905150128 80 334 1.0 4.0 0.00 0.00 0.00 51 1012.7
20260905150023 80 333 3.0 4.0 0.00 0.00 0.00 52 1012.8
20260905145919 80 310 4.0 9.0 0.00 0.00 0.00 53 1012.7
20260905145830 79 292 5.0 9.0 0.00 0.00 0.00 53 1012.7
20260905145725 79 308 4.0 7.0 0.00 0.00 0.00 53 1012.8
20260905145621 79 256 4.0 7.0 0.00 0.00 0.00 53 1012.6
20260905145517 79 292 3.0 7.0 0.00 0.00 0.00 52 1012.7
20260905145448 79 291 6.0 9.0 0.00 0.00 0.00 52 1012.7
20260905145324 78 310 5.0 7.0 0.00 0.00 0.00 53 1012.7
20260905145319 78 266 3.0 7.0 0.00 0.00 0.00 53 1012.5
20260905145131 78 327 4.0 6.0 0.00 0.00 0.00 53 1012.6
20260905145026 78 292 2.0 3.0 0.00 0.00 0.00 53 1012.5
20260905145002 79 236 5.0 8.0 0.00 0.00 0.00 54 1012.6
20260905144838 79 296 5.0 7.0 0.00 0.00 0.00 55 1012.7
20260905144730 79 290 7.0 9.0 0.00 0.00 0.00 55 1012.5
20260905144625 79 267 4.0 7.0 0.00 0.00 0.00 53 1012.6
20260905144541 79 239 2.0 6.0 0.00 0.00 0.00 53 1012.7
20260905144416 79 253 4.0 9.0 0.00 0.00 0.00 52 1012.6
20260905144328 79 245 3.0 4.0 0.00 0.00 0.00 53 1012.8
20260905144223 79 280 2.0 4.0 0.00 0.00 0.00 52 1012.7
20260905144119 79 249 4.0 6.0 0.00 0.00 0.00 51 1012.6
20260905144031 79 242 5.0 7.0 0.00 0.00 0.00 52 1012.8
20260905143946 80 267 4.0 6.0 0.00 0.00 0.00 51 1012.8
20260905143821 80 268 5.0 9.0 0.00 0.00 0.00 52 1012.7
20260905143737 80 271 2.0 8.0 0.00 0.00 0.00 52 1012.6
20260905143629 80 319 3.0 6.0 0.00 0.00 0.00 51 1012.7
20260905143524 80 275 5.0 8.0 0.00 0.00 0.00 50 1012.7
20260905143420 80 257 5.0 8.0 0.00 0.00 0.00 50 1012.7
20260905143315 81 328 4.0 6.0 0.00 0.00 0.00 50 1012.6
20260905143227 81 317 3.0 7.0 0.00 0.00 0.00 50 1012.6
20260905143142 81 302 4.0 7.0 0.00 0.00 0.00 50 1012.6
20260905143058 81 298 5.0 7.0 0.00 0.00 0.00 50 1012.5
20260905142929 81 292 4.0 7.0 0.00 0.00 0.00 49 1012.7
20260905142825 81 290 5.0 9.0 0.00 0.00 0.00 49 1012.7
20260905142720 81 306 3.0 4.0 0.00 0.00 0.00 49 1012.5
20260905142636 82 324 3.0 6.0 0.00 0.00 0.00 49 1012.7
20260905142528 82 308 5.0 9.0 0.00 0.00 0.00 49 1012.7
20260905142423 82 279 3.0 4.0 0.00 0.00 0.00 48 1012.7
20260905142319 82 258 2.0 3.0 0.00 0.00 0.00 48 1012.5
20260905142230 82 294 4.0 9.0 0.00 0.00 0.00 48 1012.6
20260905142125 82 269 4.0 8.0 0.00 0.00 0.00 47 1012.5
20260905142021 83 297 2.0 3.0 0.00 0.00 0.00 48 1012.4
20260905141916 83 278 2.0 4.0 0.00 0.00 0.00 49 1012.5
20260905141848 83 259 2.0 3.0 0.00 0.00 0.00 49 1012.5
20260905141744 83 328 2.0 3.0 0.00 0.00 0.00 49 1012.6
20260905141619 83 278 2.0 7.0 0.00 0.00 0.00 48 1012.6
20260905141531 82 229 3.0 4.0 0.00 0.00 0.00 48 1012.5
20260905141427 82 304 4.0 6.0 0.00 0.00 0.00 49 1012.6
20260905141342 82 271 3.0 6.0 0.00 0.00 0.00 49 1012.5
20260905141218 82 312 4.0 6.0 0.00 0.00 0.00 48 1012.4
20260905141129 82 284 3.0 6.0 0.00 0.00 0.00 49 1012.5
20260905141025 82 303 4.0 9.0 0.00 0.00 0.00 48 1012.6
20260905140940 82 280 6.0 10.0 0.00 0.00 0.00 47 1012.5
20260905140816 82 246 4.0 7.0 0.00 0.00 0.00 47 1012.5
20260905140727 82 263 4.0 9.0 0.00 0.00 0.00 48 1012.6
20260905140643 82 263 3.0 4.0 0.00 0.00 0.00 48 1012.4
20260905140519 82 283 6.0 8.0 0.00 0.00 0.00 48 1012.5
20260905140450 82 286 4.0 8.0 0.00 0.00 0.00 48 1012.6
20260905140326 82 263 5.0 9.0 0.00 0.00 0.00 48 1012.6
20260905140241 82 291 4.0 8.0 0.00 0.00 0.00 49 1012.5
20260905140117 82 298 4.0 6.0 0.00 0.00 0.00 48 1012.6
20260905140029 82 325 3.0 7.0 0.00 0.00 0.00 47 1012.6
20260905135924 83 247 5.0 9.0 0.00 0.00 0.00 47 1012.5
20260905135820 83 311 5.0 7.0 0.00 0.00 0.00 47 1012.5
20260905135716 83 301 4.0 8.0 0.00 0.00 0.00 48 1012.5
20260905135627 83 244 3.0 6.0 0.00 0.00 0.00 47 1012.5
20260905135523 83 305 4.0 6.0 0.00 0.00 0.00 48 1012.6
20260905135438 83 278 3.0 6.0 0.00 0.00 0.00 46 1012.6
20260905135330 83 308 6.0 9.0 0.00 0.00 0.00 47 1012.5
20260905135225 83 330 4.0 8.0 0.00 0.00 0.00 47 1012.4
20260905135120 83 299 5.0 9.0 0.00 0.00 0.00 46 1012.5
20260905135016 83 267 3.0 3.0 0.00 0.00 0.00 47 1012.3
20260905134928 83 273 2.0 4.0 0.00 0.00 0.00 47 1012.4
20260905134823 83 312 4.0 7.0 0.00 0.00 0.00 47 1012.4
20260905134719 83 312 3.0 6.0 0.00 0.00 0.00 46 1012.5
20260905134651 83 252 3.0 6.0 0.00 0.00 0.00 46 1012.3
20260905134526 84 249 4.0 7.0 0.00 0.00 0.00 46 1012.4
20260905134422 84 277 2.0 4.0 0.00 0.00 0.00 46 1012.5
20260905134337 84 291 2.0 3.0 0.00 0.00 0.00 47 1012.4
20260905134249 84 300 2.0 4.0 0.00 0.00 0.00 46 1012.4
20260905134124 84 309 4.0 6.0 0.00 0.00 0.00 45 1012.5
20260905134040 84 270 3.0 4.0 0.00 0.00 0.00 45 1012.5
20260905133915 84 263 4.0 7.0 0.00 0.00 0.00 46 1012.4
20260905133847 84 333 3.0 4.0 0.00 0.00 0.00 49 1012.5
20260905133723 84 344 2.0 2.0 0.00 0.00 0.00 47 1012.5
20260905133619 84 337 2.0 3.0 0.00 0.00 0.00 48 1012.4
20260905133530 84 295 3.0 6.0 0.00 0.00 0.00 50 1012.5
20260905133426 83 330 0.0 1.0 0.00 0.00 0.00 50 1012.4
20260905133321 83 330 1.0 2.0 0.00 0.00 0.00 49 1012.4
20260905133217 83 258 1.0 1.0 0.00 0.00 0.00 48 1012.3
20260905133128 83 240 2.0 3.0 0.00 0.00 0.00 48 1012.5
20260905133024 83 285 2.0 4.0 0.00 0.00 0.00 48 1012.5
20260905132920 83 316 3.0 3.0 0.00 0.00 0.00 48 1012.6
20260905132855 83 322 3.0 4.0 0.00 0.00 0.00 49 1012.4
20260905132747 83 294 1.0 2.0 0.00 0.00 0.00 49 1012.5
20260905132623 82 295 2.0 3.0 0.00 0.00 0.00 49 1012.4
20260905132518 82 225 1.0 2.0 0.00 0.00 0.00 51 1012.5
20260905132429 82 254 2.0 3.0 0.00 0.00 0.00 53 1012.5
20260905132337 82 289 1.0 2.0 0.00 0.00 0.00 53 1012.5
20260905132220 82 294 1.0 3.0 0.00 0.00 0.00 53 1012.6
20260905132136 81 289 2.0 2.0 0.00 0.00 0.00 52 1012.5
20260905132028 81 273 1.0 2.0 0.00 0.00 0.00 51 1012.6
20260905131923 81 242 2.0 6.0 0.00 0.00 0.00 51 1012.7
20260905131819 81 291 3.0 6.0 0.00 0.00 0.00 51 1012.8
20260905131730 81 299 3.0 4.0 0.00 0.00 0.00 51 1012.5
20260905131626 81 283 3.0 4.0 0.00 0.00 0.00 52 1012.6
20260905131522 80 245 3.0 4.0 0.00 0.00 0.00 52 1012.4
20260905131417 80 303 4.0 7.0 0.00 0.00 0.00 53 1012.6
20260905131329 80 305 3.0 6.0 0.00 0.00 0.00 54 1012.6
20260905131224 80 306 4.0 6.0 0.00 0.00 0.00 53 1012.6
20260905131120 80 283 2.0 3.0 0.00 0.00 0.00 52 1012.5
20260905131015 80 300 2.0 3.0 0.00 0.00 0.00 52 1012.6
20260905130927 81 260 3.0 4.0 0.00 0.00 0.00 51 1012.7
20260905130843 81 234 4.0 6.0 0.00 0.00 0.00 51 1012.7
20260905130718 81 253 5.0 7.0 0.00 0.00 0.00 51 1012.7
20260905130629 81 277 4.0 7.0 0.00 0.00 0.00 52 1012.8
20260905130525 81 251 2.0 4.0 0.00 0.00 0.00 55 1012.7
20260905130421 80 306 1.0 3.0 0.00 0.00 0.00 56 1012.6
20260905130316 80 353 0.0 1.0 0.00 0.00 0.00 55 1012.8
20260905130248 80 345 1.0 2.0 0.00 0.00 0.00 55 1012.7
20260905130123 80 307 2.0 3.0 0.00 0.00 0.00 55 1012.7
20260905130019 79 306 2.0 4.0 0.00 0.00 0.00 55 1012.5
20260905125931 79 313 3.0 6.0 0.00 0.00 0.00 55 1012.8
20260905125826 79 324 4.0 6.0 0.00 0.00 0.00 56 1012.9
20260905125722 79 316 3.0 6.0 0.00 0.00 0.00 56 1013.0
20260905125618 79 325 3.0 6.0 0.00 0.00 0.00 56 1012.8
20260905125529 79 248 1.0 2.0 0.00 0.00 0.00 55 1012.8
20260905125425 79 232 2.0 3.0 0.00 0.00 0.00 55 1012.7
20260905125320 78 236 2.0 3.0 0.00 0.00 0.00 56 1012.8
20260905125236 78 255 1.0 3.0 0.00 0.00 0.00 56 1012.9
20260905125127 78 274 2.0 4.0 0.00 0.00 0.00 56 1013.0
20260905125023 78 249 2.0 4.0 0.00 0.00 0.00 57 1013.0
20260905124938 78 278 1.0 2.0 0.00 0.00 0.00 58 1012.8
20260905124830 78 253 3.0 6.0 0.00 0.00 0.00 57 1012.9
20260905124726 78 333 3.0 4.0 0.00 0.00 0.00 57 1012.9
20260905124621 78 301 2.0 2.0 0.00 0.00 0.00 56 1012.7
20260905124517 78 259 2.0 3.0 0.00 0.00 0.00 57 1013.1
20260905124428 78 237 3.0 6.0 0.00 0.00 0.00 58 1013.0
20260905124324 78 316 5.0 7.0 0.00 0.00 0.00 58 1013.1
20260905124220 78 305 2.0 4.0 0.00 0.00 0.00 58 1012.9
20260905124135 78 250 1.0 3.0 0.00 0.00 0.00 58 1012.9
20260905124027 78 253 1.0 2.0 0.00 0.00 0.00 58 1012.9
20260905123922 77 274 1.0 2.0 0.00 0.00 0.00 58 1013.0
20260905123818 77 240 4.0 7.0 0.00 0.00 0.00 57 1013.1
20260905123750 77 254 3.0 6.0 0.00 0.00 0.00 58 1013.0
20260905123625 77 296 3.0 6.0 0.00 0.00 0.00 58 1013.0
20260905123521 77 245 3.0 4.0 0.00 0.00 0.00 58 1013.0
20260905123416 77 285 2.0 4.0 0.00 0.00 0.00 59 1012.8
20260905123328 77 295 3.0 4.0 0.00 0.00 0.00 61 1013.0
20260905123224 77 273 1.0 2.0 0.00 0.00 0.00 61 1013.1
20260905123119 76 313 1.0 1.0 0.00 0.00 0.00 62 1013.1
20260905123015 76 314 1.0 3.0 0.00 0.00 0.00 61 1012.9
20260905122947 76 322 1.0 2.0 0.00 0.00 0.00 62 1012.9
20260905122822 75 327 2.0 2.0 0.00 0.00 0.00 62 1013.1
20260905122718 75 300 2.0 3.0 0.00 0.00 0.00 62 1013.2
20260905122629 75 298 2.0 3.0 0.00 0.00 0.00 62 1012.9
20260905122525 75 268 2.0 3.0 0.00 0.00 0.00 62 1013.2
20260905122420 75 292 5.0 8.0 0.00 0.00 0.00 61 1013.2
20260905122316 75 279 4.0 6.0 0.00 0.00 0.00 61 1013.1
20260905122228 75 255 4.0 6.0 0.00 0.00 0.00 61 1013.2
20260905122123 75 278 4.0 7.0 0.00 0.00 0.00 61 1013.0
20260905122019 75 312 5.0 7.0 0.00 0.00 0.00 61 1013.0
20260905121931 75 302 5.0 8.0 0.00 0.00 0.00 62 1013.2
20260905121826 75 315 6.0 9.0 0.00 0.00 0.00 62 1013.3
20260905121721 74 298 6.0 8.0 0.00 0.00 0.00 63 1013.3
20260905121637 74 290 2.0 7.0 0.00 0.00 0.00 64 1013.4
20260905121529 74 292 2.0 6.0 0.00 0.00 0.00 65 1013.4
20260905121424 74 289 3.0 4.0 0.00 0.00 0.00 64 1013.4
20260905121320 73 282 4.0 6.0 0.00 0.00 0.00 65 1013.4
20260905121215 73 287 4.0 6.0 0.00 0.00 0.00 66 1013.3
20260905121127 73 284 3.0 7.0 0.00 0.00 0.00 66 1013.4
20260905121022 73 265 2.0 4.0 0.00 0.00 0.00 66 1013.2
20260905120918 73 280 2.0 3.0 0.00 0.00 0.00 65 1013.2
20260905120830 72 245 4.0 6.0 0.00 0.00 0.00 66 1013.3
20260905120726 72 292 4.0 7.0 0.00 0.00 0.00 67 1013.3
20260905120641 72 266 5.0 7.0 0.00 0.00 0.00 66 1013.1
20260905120516 72 255 3.0 6.0 0.00 0.00 0.00 67 1013.3
20260905120428 71 251 3.0 4.0 0.00 0.00 0.00 68 1013.4
20260905120323 71 300 2.0 3.0 0.00 0.00 0.00 68 1013.4
20260905120219 71 270 3.0 6.0 0.00 0.00 0.00 68 1013.1
20260905120131 71 278 4.0 6.0 0.00 0.00 0.00 68 1013.1
20260905120027 71 240 4.0 7.0 0.00 0.00 0.00 69 1012.9
20260905115922 71 265 3.0 6.0 0.00 0.00 0.00 69 1013.1
20260905115818 71 246 5.0 9.0 0.00 0.00 0.00 69 1013.1
20260905115729 71 245 4.0 7.0 0.00 0.00 0.00 70 1013.1
20260905115625 70 236 2.0 4.0 0.00 0.00 0.00 70 1013.1
20260905115520 70 272 1.0 3.0 0.00 0.00 0.00 70 1013.0
20260905115416 70 289 1.0 2.0 0.00 0.00 0.00 70 1013.0
20260905115348 70 296 2.0 3.0 0.00 0.00 0.00 69 1012.9
20260905115223 70 305 3.0 6.0 0.00 0.00 0.00 69 1013.1
20260905115139 70 285 3.0 4.0 0.00 0.00 0.00 69 1013.1
20260905115031 70 242 4.0 6.0 0.00 0.00 0.00 69 1013.0
20260905114926 70 256 3.0 6.0 0.00 0.00 0.00 70 1013.0
20260905114821 70 309 3.0 4.0 0.00 0.00 0.00 69 1013.0
20260905114716 70 306 3.0 6.0 0.00 0.00 0.00 70 1013.1
20260905114628 70 321 2.0 3.0 0.00 0.00 0.00 69 1013.1
20260905114524 70 323 4.0 8.0 0.00 0.00 0.00 69 1013.1
20260905114419 70 306 3.0 4.0 0.00 0.00 0.00 69 1013.1
20260905114315 70 283 4.0 7.0 0.00 0.00 0.00 69 1013.0
20260905114227 70 253 3.0 4.0 0.00 0.00 0.00 69 1013.1
20260905114122 70 296 3.0 4.0 0.00 0.00 0.00 69 1013.0
20260905114018 70 250 3.0 4.0 0.00 0.00 0.00 69 1012.9
20260905113929 70 287 3.0 4.0 0.00 0.00 0.00 69 1013.0
20260905113825 70 308 4.0 7.0 0.00 0.00 0.00 69 1013.0
20260905113720 70 291 3.0 7.0 0.00 0.00 0.00 69 1013.0
20260905113616 70 254 1.0 1.0 0.00 0.00 0.00 69 1012.9
20260905113528 70 250 2.0 3.0 0.00 0.00 0.00 69 1012.7
20260905113423 70 247 2.0 3.0 0.00 0.00 0.00 68 1012.8
20260905113319 70 247 4.0 6.0 0.00 0.00 0.00 68 1012.9
20260905113231 70 238 5.0 7.0 0.00 0.00 0.00 69 1012.8
20260905113126 70 248 4.0 4.0 0.00 0.00 0.00 69 1012.8
20260905113021 70 280 2.0 3.0 0.00 0.00 0.00 69 1012.9
20260905112917 70 241 3.0 6.0 0.00 0.00 0.00 69 1012.8
20260905112828 70 255 2.0 3.0 0.00 0.00 0.00 69 1012.7
20260905112744 70 237 3.0 4.0 0.00 0.00 0.00 69 1012.8
20260905112620 70 241 3.0 4.0 0.00 0.00 0.00 69 1012.8
20260905112535 70 286 2.0 4.0 0.00 0.00 0.00 69 1012.7
20260905112427 70 281 1.0 1.0 0.00 0.00 0.00 69 1012.7
20260905112322 70 296 2.0 2.0 0.00 0.00 0.00 69 1012.8
20260905112218 70 288 2.0 2.0 0.00 0.00 0.00 69 1012.6
20260905112129 70 253 4.0 6.0 0.00 0.00 0.00 69 1012.7
20260905112025 70 249 3.0 4.0 0.00 0.00 0.00 70 1012.8
20260905111940 70 266 3.0 4.0 0.00 0.00 0.00 70 1012.6
20260905111856 70 292 3.0 6.0 0.00 0.00 0.00 69 1012.6
20260905111728 70 251 3.0 4.0 0.00 0.00 0.00 69 1012.5
20260905111623 70 248 3.0 4.0 0.00 0.00 0.00 69 1012.6
20260905111518 70 241 3.0 4.0 0.00 0.00 0.00 69 1012.7
20260905111430 70 310 1.0 2.0 0.00 0.00 0.00 70 1012.6
20260905111345 70 315 2.0 4.0 0.00 0.00 0.00 69 1012.6
20260905111241 70 304 4.0 7.0 0.00 0.00 0.00 69 1012.6
20260905111116 70 304 2.0 4.0 0.00 0.00 0.00 69 1012.6
20260905111108 70 305 2.0 2.0 0.00 0.00 0.00 69 1012.7
20260905110924 70 305 2.0 4.0 0.00 0.00 0.00 69 1012.5
20260905110819 70 306 1.0 1.0 0.00 0.00 0.00 69 1012.4
20260905110751 70 306 1.0 2.0 0.00 0.00 0.00 69 1012.6
20260905110626 70 307 1.0 2.0 0.00 0.00 0.00 69 1012.5
20260905110542 70 305 1.0 2.0 0.00 0.00 0.00 68 1012.6
20260905110418 70 266 1.0 1.0 0.00 0.00 0.00 68 1012.5
20260905110329 70 0.0 0.0 0.00 0.00 0.00 68 1012.5
20260905110305 70 266 0.0 1.0 0.00 0.00 0.00 68 1012.4
20260905110121 70 265 1.0 1.0 0.00 0.00 0.00 69 1012.4
20260905110016 70 264 2.0 3.0 0.00 0.00 0.00 69 1012.5
20260905105928 70 307 2.0 3.0 0.00 0.00 0.00 68 1012.4
20260905105823 70 293 2.0 2.0 0.00 0.00 0.00 69 1012.5
20260905105719 70 270 1.0 2.0 0.00 0.00 0.00 68 1012.3
20260905105651 70 250 2.0 2.0 0.00 0.00 0.00 69 1012.3
20260905105526 70 283 2.0 2.0 0.00 0.00 0.00 69 1012.2
20260905105421 70 307 2.0 3.0 0.00 0.00 0.00 68 1012.1
20260905105317 70 296 2.0 4.0 0.00 0.00 0.00 68 1012.4
20260905105228 70 283 1.0 2.0 0.00 0.00 0.00 68 1012.2
20260905105124 70 280 1.0 2.0 0.00 0.00 0.00 68 1012.3
20260905105020 70 277 1.0 2.0 0.00 0.00 0.00 68 1012.3
20260905104915 70 257 2.0 6.0 0.00 0.00 0.00 68 1012.2
20260905104827 70 292 2.0 4.0 0.00 0.00 0.00 68 1012.4
20260905104722 70 263 1.0 1.0 0.00 0.00 0.00 68 1012.3
20260905104618 70 263 1.0 1.0 0.00 0.00 0.00 68 1012.5
20260905104530 70 263 1.0 1.0 0.00 0.00 0.00 68 1012.0
20260905104425 70 262 2.0 3.0 0.00 0.00 0.00 68 1012.1
20260905104321 70 307 1.0 2.0 0.00 0.00 0.00 68 1012.1
20260905104216 70 309 2.0 2.0 0.00 0.00 0.00 68 1012.1
20260905104128 70 309 1.0 1.0 0.00 0.00 0.00 68 1012.2
20260905104023 70 311 2.0 2.0 0.00 0.00 0.00 68 1012.0
20260905103919 70 320 2.0 2.0 0.00 0.00 0.00 68 1012.0
20260905103831 70 320 1.0 3.0 0.00 0.00 0.00 68 1012.0
20260905103746 70 322 1.0 2.0 0.00 0.00 0.00 68 1012.1
20260905103621 70 321 2.0 2.0 0.00 0.00 0.00 67 1012.1
20260905103517 70 328 1.0 3.0 0.00 0.00 0.00 68 1012.2
20260905103448 70 309 1.0 2.0 0.00 0.00 0.00 68 1012.1
20260905103344 70 309 0.0 1.0 0.00 0.00 0.00 67 1012.2
20260905103220 70 0.0 0.0 0.00 0.00 0.00 67 1012.2
20260905103115 70 0.0 0.0 0.00 0.00 0.00 67 1012.2
20260905103047 70 309 1.0 1.0 0.00 0.00 0.00 67 1012.0
20260905103002 70 310 2.0 2.0 0.00 0.00 0.00 67 1012.1
20260905102818 70 321 2.0 3.0 0.00 0.00 0.00 67 1011.9
20260905102730 70 322 2.0 3.0 0.00 0.00 0.00 66 1012.0
20260905102625 70 310 1.0 2.0 0.00 0.00 0.00 66 1012.0
20260905102520 70 309 0.0 1.0 0.00 0.00 0.00 67 1012.0
20260905102416 70 309 0.0 1.0 0.00 0.00 0.00 67 1012.1
20260905102328 70 309 0.0 1.0 0.00 0.00 0.00 67 1012.0
20260905102244 70 309 1.0 1.0 0.00 0.00 0.00 67 1012.1
20260905102119 71 313 1.0 2.0 0.00 0.00 0.00 67 1012.1
20260905102030 71 321 1.0 2.0 0.00 0.00 0.00 67 1012.0
20260905101925 71 321 2.0 3.0 0.00 0.00 0.00 67 1012.1
20260905101841 71 311 3.0 6.0 0.00 0.00 0.00 67 1012.0
20260905101717 71 326 1.0 2.0 0.00 0.00 0.00 67 1011.9
20260905101628 71 348 1.0 1.0 0.00 0.00 0.00 67 1012.1
20260905101524 71 344 1.0 3.0 0.00 0.00 0.00 67 1012.1
20260905101420 71 319 2.0 3.0 0.00 0.00 0.00 67 1012.2
20260905101315 71 321 1.0 1.0 0.00 0.00 0.00 66 1012.1
20260905101247 71 321 1.0 2.0 0.00 0.00 0.00 66 1011.8
20260905101122 71 321 1.0 2.0 0.00 0.00 0.00 67 1012.0
20260905101018 71 322 1.0 2.0 0.00 0.00 0.00 66 1012.1
20260905100929 71 309 2.0 3.0 0.00 0.00 0.00 66 1012.1
20260905100845 71 252 2.0 4.0 0.00 0.00 0.00 67 1012.0
20260905100721 71 262 0.0 1.0 0.00 0.00 0.00 67 1012.0
20260905100616 71 261 2.0 3.0 0.00 0.00 0.00 67 1012.2
20260905100548 71 323 1.0 2.0 0.00 0.00 0.00 66 1012.3
20260905100424 71 323 1.0 1.0 0.00 0.00 0.00 66 1012.2
20260905100359 71 323 1.0 1.0 0.00 0.00 0.00 66 1012.2
20260905100231 71 323 1.0 1.0 0.00 0.00 0.00 66 1012.0
20260905100126 71 324 0.0 1.0 0.00 0.00 0.00 66 1012.0
20260905100021 71 324 0.0 1.0 0.00 0.00 0.00 66 1012.0
20260905095937 71 324 0.0 1.0 0.00 0.00 0.00 66 1012.0
20260905095828 71 324 1.0 2.0 0.00 0.00 0.00 66 1012.1
20260905095724 71 322 2.0 3.0 0.00 0.00 0.00 66 1012.0
20260905095620 71 323 2.0 2.0 0.00 0.00 0.00 66 1012.0
20260905095515 71 320 2.0 3.0 0.00 0.00 0.00 65 1011.9
20260905095447 71 319 1.0 1.0 0.00 0.00 0.00 65 1012.0
20260905095322 71 319 0.0 1.0 0.00 0.00 0.00 66 1011.9
20260905095218 71 318 1.0 2.0 0.00 0.00 0.00 66 1012.0
20260905095150 71 331 1.0 1.0 0.00 0.00 0.00 66 1012.1
20260905095025 71 330 1.0 2.0 0.00 0.00 0.00 66 1012.0
20260905094921 71 330 1.0 2.0 0.00 0.00 0.00 65 1011.9
20260905094816 71 331 1.0 1.0 0.00 0.00 0.00 65 1012.0
20260905094728 71 330 1.0 2.0 0.00 0.00 0.00 65 1012.0
20260905094623 71 331 1.0 2.0 0.00 0.00 0.00 65 1012.0
20260905094519 71 331 0.0 1.0 0.00 0.00 0.00 65 1012.0
20260905094431 71 331 0.0 1.0 0.00 0.00 0.00 65 1011.9
20260905094326 71 331 1.0 2.0 0.00 0.00 0.00 65 1012.0
20260905094222 71 331 2.0 2.0 0.00 0.00 0.00 65 1012.0
20260905094117 71 321 2.0 4.0 0.00 0.00 0.00 65 1011.9
20260905094029 71 303 1.0 2.0 0.00 0.00 0.00 65 1011.9
20260905093924 71 302 0.0 2.0 0.00 0.00 0.00 65 1012.1
20260905093820 71 298 1.0 1.0 0.00 0.00 0.00 65 1011.9
20260905093715 71 288 1.0 3.0 0.00 0.00 0.00 65 1011.9
20260905093707 71 301 2.0 2.0 0.00 0.00 0.00 65 1012.0
20260905093522 71 270 2.0 2.0 0.00 0.00 0.00 65 1011.9
20260905093418 71 249 1.0 1.0 0.00 0.00 0.00 65 1011.8
20260905093330 71 250 1.0 2.0 0.00 0.00 0.00 65 1011.9
20260905093225 71 248 0.0 1.0 0.00 0.00 0.00 64 1011.9
20260905093121 71 0.0 0.0 0.00 0.00 0.00 64 1011.9
20260905093016 71 0.0 0.0 0.00 0.00 0.00 64 1011.9
20260905092948 71 248 0.0 1.0 0.00 0.00 0.00 64 1012.0
20260905092823 71 248 0.0 1.0 0.00 0.00 0.00 64 1011.8
20260905092719 71 248 2.0 2.0 0.00 0.00 0.00 64 1011.9
20260905092710 71 257 2.0 3.0 0.00 0.00 0.00 65 1012.0
20260905092546 71 296 2.0 3.0 0.00 0.00 0.00 64 1012.1
20260905092421 71 302 3.0 6.0 0.00 0.00 0.00 64 1011.9
20260905092317 71 300 2.0 3.0 0.00 0.00 0.00 64 1011.9
20260905092229 71 244 1.0 2.0 0.00 0.00 0.00 64 1012.0
20260905092204 71 245 1.0 1.0 0.00 0.00 0.00 64 1011.8
20260905092019 71 244 1.0 2.0 0.00 0.00 0.00 64 1011.7
20260905091936 71 240 2.0 3.0 0.00 0.00 0.00 64 1011.8
20260905091827 71 304 1.0 1.0 0.00 0.00 0.00 64 1012.0
20260905091742 71 304 1.0 2.0 0.00 0.00 0.00 64 1012.0
20260905091618 71 303 2.0 3.0 0.00 0.00 0.00 64 1012.1
20260905091530 71 319 2.0 4.0 0.00 0.00 0.00 64 1011.9
20260905091425 71 315 2.0 3.0 0.00 0.00 0.00 64 1011.9
20260905091321 71 302 2.0 3.0 0.00 0.00 0.00 64 1012.0